EDW85 FACT-LSZH

Flight info

Callsign EDW85
Flight time N/A
Altitude 35000
Route KODES UN186 ATUPI/N0499F360 UM436 ANVAG UN187 VNA/N0490F380 UR526 LIKAD UY339 MESIN UG861 DLA UA604 AS/N0484F400 UR978 BOD UM998 CSO UM2 CIRTA DCT BUKID DCT NEGAT DCT OMEDA DCT RAPUR DCT TORTU DCT ERTEV DCT CANNE Z651 KELIP
Aircraft A359/H-SABDE2E3GHIJ2J3J4J5M1P2RWXYZ/LB1D1

Departure

Time N/A
Airport Cape Town International Airport (FACT)

Arrival

Time 2026-02-20 09:49
Airport Zürich Airport (LSZH)
Time Latitude Longitude Altitude Speed Heading
2026-02-20 00:08 -25.10955 17.43979 37002 ft 465 kts 349°
2026-02-20 00:09 -25.04551 17.42953 37001 ft 465 kts 349°
2026-02-20 00:09 -24.98147 17.41930 36998 ft 465 kts 349°
2026-02-20 00:10 -24.91735 17.40904 36998 ft 466 kts 349°
2026-02-20 00:10 -24.85311 17.39876 36998 ft 466 kts 349°
2026-02-20 00:11 -24.78886 17.38850 36995 ft 467 kts 349°
2026-02-20 00:11 -24.69229 17.37311 36997 ft 468 kts 349°
2026-02-20 00:12 -24.62784 17.36285 36997 ft 468 kts 349°
2026-02-20 00:12 -24.56339 17.35260 36997 ft 469 kts 349°
2026-02-20 00:13 -24.49878 17.34234 36994 ft 469 kts 349°
2026-02-20 00:13 -24.43411 17.33208 36999 ft 470 kts 349°
2026-02-20 00:14 -24.36979 17.32193 36999 ft 470 kts 349°
2026-02-20 00:14 -24.30494 17.31174 36995 ft 471 kts 349°
2026-02-20 00:15 -24.24009 17.30155 36998 ft 471 kts 349°
2026-02-20 00:15 -24.17521 17.29136 37001 ft 471 kts 349°
2026-02-20 00:16 -24.11025 17.28118 37004 ft 471 kts 349°
2026-02-20 00:16 -24.04529 17.27101 37007 ft 472 kts 349°
2026-02-20 00:17 -23.98031 17.26084 37064 ft 472 kts 349°
2026-02-20 00:17 -23.91528 17.25066 37073 ft 472 kts 349°
2026-02-20 00:18 -23.85025 17.24050 37080 ft 472 kts 349°
2026-02-20 00:18 -23.78515 17.23035 37087 ft 472 kts 349°
2026-02-20 00:19 -23.72012 17.22021 37093 ft 472 kts 349°
2026-02-20 00:19 -23.65502 17.21008 37102 ft 473 kts 349°
2026-02-20 00:20 -23.58989 17.19979 37105 ft 473 kts 349°
2026-02-20 00:20 -23.52485 17.18922 37115 ft 473 kts 349°
2026-02-20 00:21 -23.45979 17.17867 37125 ft 473 kts 349°
2026-02-20 00:21 -23.39465 17.16817 37131 ft 473 kts 349°
2026-02-20 00:22 -23.32999 17.15775 37141 ft 473 kts 349°
2026-02-20 00:22 -23.26487 17.14726 37151 ft 473 kts 349°
2026-02-20 00:23 -23.19974 17.13678 37162 ft 473 kts 349°
2026-02-20 00:23 -23.13468 17.12554 37169 ft 473 kts 347°
2026-02-20 00:24 -23.07054 17.11017 37180 ft 472 kts 345°
2026-02-20 00:24 -23.00655 17.09391 37188 ft 472 kts 345°
2026-02-20 00:25 -22.94239 17.07825 37203 ft 473 kts 346°
2026-02-20 00:25 -22.87813 17.06306 37225 ft 473 kts 346°
2026-02-20 00:26 -22.81383 17.04798 37243 ft 473 kts 346°
2026-02-20 00:26 -22.74951 17.03290 37260 ft 473 kts 346°
2026-02-20 00:27 -22.68524 17.01782 37279 ft 473 kts 346°
2026-02-20 00:27 -22.62098 17.00275 37281 ft 473 kts 346°
2026-02-20 00:28 -22.56754 16.99023 37277 ft 473 kts 346°
2026-02-20 00:28 -22.50326 16.97526 37263 ft 473 kts 347°
2026-02-20 00:29 -22.43894 16.96027 37247 ft 473 kts 347°
2026-02-20 00:29 -22.37466 16.94529 37218 ft 473 kts 347°
2026-02-20 00:30 -22.31038 16.93005 37197 ft 473 kts 347°
2026-02-20 00:30 -22.24621 16.91474 37180 ft 473 kts 347°
2026-02-20 00:31 -22.18185 16.89997 37179 ft 473 kts 347°
2026-02-20 00:31 -22.11739 16.88554 37170 ft 473 kts 347°
2026-02-20 00:32 -22.05306 16.87092 37171 ft 473 kts 347°
2026-02-20 00:32 -21.98876 16.85604 37164 ft 473 kts 347°
2026-02-20 00:33 -21.92437 16.84113 37162 ft 473 kts 347°
2026-02-20 00:33 -21.86001 16.82626 37158 ft 473 kts 347°
2026-02-20 00:34 -21.79558 16.81141 37159 ft 474 kts 347°
2026-02-20 00:34 -21.73108 16.79657 37155 ft 474 kts 347°
2026-02-20 00:35 -21.66700 16.78182 37153 ft 474 kts 347°
2026-02-20 00:35 -21.60247 16.76699 37151 ft 474 kts 347°
2026-02-20 00:36 -21.53786 16.75216 37146 ft 475 kts 347°
2026-02-20 00:36 -21.47325 16.73734 37137 ft 475 kts 347°
2026-02-20 00:37 -21.40856 16.72251 37131 ft 475 kts 347°
2026-02-20 00:37 -21.34389 16.70770 37130 ft 476 kts 347°
2026-02-20 00:38 -21.27907 16.69287 37126 ft 476 kts 347°
2026-02-20 00:38 -21.21427 16.67806 37118 ft 476 kts 347°
2026-02-20 00:39 -21.14945 16.66326 37117 ft 476 kts 348°
2026-02-20 00:39 -21.08462 16.64847 37115 ft 476 kts 348°
2026-02-20 00:40 -21.02020 16.63378 37109 ft 477 kts 348°
2026-02-20 00:40 -20.95530 16.61898 37098 ft 477 kts 348°
2026-02-20 00:41 -20.89036 16.60414 37094 ft 477 kts 348°
2026-02-20 00:41 -20.82543 16.58932 37091 ft 477 kts 348°
2026-02-20 00:42 -20.76050 16.57452 37083 ft 477 kts 348°
2026-02-20 00:42 -20.69555 16.55973 37077 ft 477 kts 348°
2026-02-20 00:43 -20.63053 16.54494 37071 ft 478 kts 348°
2026-02-20 00:43 -20.56557 16.53017 37061 ft 478 kts 348°
2026-02-20 00:44 -20.50051 16.51540 37054 ft 478 kts 348°
2026-02-20 00:44 -20.43542 16.50064 37048 ft 478 kts 348°
2026-02-20 00:45 -20.37031 16.48588 37042 ft 478 kts 348°
2026-02-20 00:45 -20.30516 16.47112 37037 ft 479 kts 348°
2026-02-20 00:46 -20.24002 16.45638 37032 ft 479 kts 348°
2026-02-20 00:46 -20.17478 16.44162 37024 ft 479 kts 348°
2026-02-20 00:47 -20.10954 16.42689 37023 ft 480 kts 348°
2026-02-20 00:47 -20.04426 16.41215 37014 ft 480 kts 348°
2026-02-20 00:48 -19.97888 16.39741 37016 ft 480 kts 348°
2026-02-20 00:48 -19.91351 16.38268 37015 ft 481 kts 348°
2026-02-20 00:49 -19.84807 16.36794 37017 ft 481 kts 348°
2026-02-20 00:49 -19.78256 16.35321 37017 ft 481 kts 348°
2026-02-20 00:50 -19.71748 16.33858 37016 ft 481 kts 348°
2026-02-20 00:50 -19.65200 16.32387 37008 ft 481 kts 348°
2026-02-20 00:51 -19.58641 16.30915 37008 ft 482 kts 348°
2026-02-20 00:51 -19.52086 16.29446 37003 ft 482 kts 348°
2026-02-20 00:52 -19.45527 16.27977 37002 ft 482 kts 348°
2026-02-20 00:52 -19.38972 16.26509 37001 ft 482 kts 348°
2026-02-20 00:53 -19.32413 16.25042 37002 ft 481 kts 348°
2026-02-20 00:53 -19.25857 16.23577 36998 ft 481 kts 348°
2026-02-20 00:54 -19.19297 16.22112 37002 ft 481 kts 349°
2026-02-20 00:54 -19.12748 16.20651 37003 ft 481 kts 349°
2026-02-20 00:55 -19.06192 16.19190 36999 ft 481 kts 349°
2026-02-20 00:55 -18.99638 16.17730 37001 ft 482 kts 349°
2026-02-20 00:56 -18.93079 16.16268 36992 ft 482 kts 349°
2026-02-20 00:56 -18.86519 16.14812 36997 ft 482 kts 349°
2026-02-20 00:57 -18.79950 16.13354 36992 ft 482 kts 349°
2026-02-20 00:57 -18.73391 16.11896 36988 ft 482 kts 349°
2026-02-20 00:58 -18.66821 16.10437 36990 ft 482 kts 349°
2026-02-20 00:58 -18.60259 16.08982 36989 ft 482 kts 349°
2026-02-20 00:59 -18.53692 16.07529 36986 ft 482 kts 349°
2026-02-20 00:59 -18.47121 16.06071 36986 ft 482 kts 349°
2026-02-20 01:00 -18.40594 16.04624 36985 ft 483 kts 349°
2026-02-20 01:00 -18.34018 16.03166 36982 ft 483 kts 349°
2026-02-20 01:01 -18.27438 16.01710 36983 ft 483 kts 349°
2026-02-20 01:01 -18.20855 16.00254 36981 ft 484 kts 349°
2026-02-20 01:02 -18.14265 15.98799 36984 ft 484 kts 349°
2026-02-20 01:02 -18.07672 15.97343 36995 ft 484 kts 349°
2026-02-20 01:03 -18.01078 15.95888 37000 ft 485 kts 349°
2026-02-20 01:03 -17.94476 15.94433 37011 ft 485 kts 349°
2026-02-20 01:04 -17.87864 15.92976 37005 ft 485 kts 349°
2026-02-20 01:04 -17.81259 15.91522 37010 ft 485 kts 349°
2026-02-20 01:05 -17.74643 15.90067 37002 ft 486 kts 349°
2026-02-20 01:05 -17.68025 15.88612 36992 ft 486 kts 349°
2026-02-20 01:06 -17.61404 15.87158 36987 ft 486 kts 349°
2026-02-20 01:06 -17.54775 15.85703 36980 ft 487 kts 349°
2026-02-20 01:07 -17.48147 15.84250 36977 ft 487 kts 349°
2026-02-20 01:07 -17.41512 15.82796 36979 ft 487 kts 349°
2026-02-20 01:08 -17.34906 15.81210 36993 ft 488 kts 346°
2026-02-20 01:08 -17.28406 15.79116 37020 ft 489 kts 343°
2026-02-20 01:09 -17.21935 15.76943 37048 ft 489 kts 344°
2026-02-20 01:09 -17.15431 15.74844 37075 ft 489 kts 345°
2026-02-20 01:10 -17.08959 15.72812 37091 ft 489 kts 345°
2026-02-20 01:10 -17.02444 15.70782 37091 ft 489 kts 345°
2026-02-20 01:11 -16.95924 15.68750 37089 ft 489 kts 345°
2026-02-20 01:11 -16.89397 15.66715 37064 ft 489 kts 345°
2026-02-20 01:12 -16.82875 15.64681 37036 ft 489 kts 345°
2026-02-20 01:12 -16.76344 15.62646 37011 ft 490 kts 345°
2026-02-20 01:13 -16.69818 15.60614 36983 ft 490 kts 345°
2026-02-20 01:13 -16.63284 15.58580 36981 ft 490 kts 345°
2026-02-20 01:14 -16.56751 15.56550 36980 ft 490 kts 345°
2026-02-20 01:14 -16.50207 15.54516 36982 ft 491 kts 345°
2026-02-20 01:15 -16.43657 15.52482 36984 ft 491 kts 345°
2026-02-20 01:15 -16.37103 15.50449 36984 ft 492 kts 345°
2026-02-20 01:16 -16.31644 15.48756 36986 ft 492 kts 345°
2026-02-20 01:16 -16.25081 15.46722 36987 ft 492 kts 345°
2026-02-20 01:17 -16.18512 15.44688 36983 ft 492 kts 345°
2026-02-20 01:17 -16.10877 15.42325 36980 ft 492 kts 345°
2026-02-20 01:18 -16.05376 15.40625 36989 ft 492 kts 345°
2026-02-20 01:18 -15.98814 15.38597 36987 ft 492 kts 345°
2026-02-20 01:19 -15.92247 15.36569 36989 ft 492 kts 345°
2026-02-20 01:19 -15.85684 15.34544 36991 ft 492 kts 345°
2026-02-20 01:20 -15.79169 15.32535 36989 ft 492 kts 345°
2026-02-20 01:20 -15.72612 15.30514 36990 ft 491 kts 345°
2026-02-20 01:21 -15.66060 15.28497 36992 ft 491 kts 345°
2026-02-20 01:22 -15.56228 15.25471 36993 ft 491 kts 345°
2026-02-20 01:22 -15.49681 15.23458 36997 ft 491 kts 345°
2026-02-20 01:23 -15.43140 15.21448 36996 ft 490 kts 345°
2026-02-20 01:23 -15.36598 15.19439 36997 ft 490 kts 345°
2026-02-20 01:24 -15.30064 15.17434 36997 ft 490 kts 345°
2026-02-20 01:24 -15.23532 15.15431 36997 ft 489 kts 345°
2026-02-20 01:25 -15.17004 15.13431 36998 ft 489 kts 345°
2026-02-20 01:25 -15.10475 15.11432 37001 ft 489 kts 345°
2026-02-20 01:26 -15.03949 15.09434 37001 ft 489 kts 345°
2026-02-20 01:26 -14.97428 15.07440 36999 ft 489 kts 345°
2026-02-20 01:27 -14.90909 15.05447 36997 ft 489 kts 345°
2026-02-20 01:27 -14.84385 15.03454 37000 ft 488 kts 345°
2026-02-20 01:28 -14.77873 15.01466 37002 ft 488 kts 345°
2026-02-20 01:28 -14.71353 14.99477 37000 ft 488 kts 345°
2026-02-20 01:29 -14.64837 14.97491 37006 ft 489 kts 345°
2026-02-20 01:29 -14.58316 14.95503 37006 ft 489 kts 345°
2026-02-20 01:30 -14.51837 14.93530 37007 ft 489 kts 345°
2026-02-20 01:30 -14.45307 14.91543 37010 ft 489 kts 345°
2026-02-20 01:31 -14.38782 14.89558 37008 ft 489 kts 345°
2026-02-20 01:31 -14.32257 14.87574 37014 ft 489 kts 345°
2026-02-20 01:32 -14.25727 14.85590 37013 ft 489 kts 345°
2026-02-20 01:32 -14.19197 14.83608 37014 ft 489 kts 345°
2026-02-20 01:33 -14.12662 14.81625 37019 ft 490 kts 345°
2026-02-20 01:33 -14.06122 14.79641 37019 ft 490 kts 345°
2026-02-20 01:34 -13.99588 14.77661 37025 ft 490 kts 345°
2026-02-20 01:34 -13.93047 14.75679 37023 ft 490 kts 345°
2026-02-20 01:35 -13.86513 14.73701 37026 ft 490 kts 345°
2026-02-20 01:35 -13.79967 14.71722 37022 ft 490 kts 345°
2026-02-20 01:36 -13.73426 14.69744 37021 ft 490 kts 345°
2026-02-20 01:36 -13.66880 14.67766 37022 ft 490 kts 345°
2026-02-20 01:37 -13.57066 14.64803 37022 ft 490 kts 345°
2026-02-20 01:37 -13.50524 14.62829 37024 ft 490 kts 346°
2026-02-20 01:38 -13.43969 14.60852 37021 ft 490 kts 346°
2026-02-20 01:38 -13.37426 14.58881 37025 ft 490 kts 346°
2026-02-20 01:39 -13.30922 14.56922 37024 ft 490 kts 346°
2026-02-20 01:39 -13.24328 14.54937 37020 ft 490 kts 346°
2026-02-20 01:40 -13.17780 14.52966 37023 ft 490 kts 346°
2026-02-20 01:40 -13.11271 14.51009 37026 ft 490 kts 346°
2026-02-20 01:41 -13.04725 14.49041 37017 ft 490 kts 346°
2026-02-20 01:41 -12.98178 14.47075 37019 ft 490 kts 346°
2026-02-20 01:42 -12.91640 14.45112 37017 ft 490 kts 346°
2026-02-20 01:42 -12.85098 14.43149 37015 ft 489 kts 346°
2026-02-20 01:43 -12.78561 14.41189 37013 ft 489 kts 346°
2026-02-20 01:43 -12.72032 14.39232 37014 ft 488 kts 346°
2026-02-20 01:44 -12.65512 14.37279 37016 ft 488 kts 346°
2026-02-20 01:44 -12.58996 14.35328 37017 ft 488 kts 347°
2026-02-20 01:45 -12.52486 14.33381 37021 ft 487 kts 347°
2026-02-20 01:45 -12.45985 14.31436 37010 ft 487 kts 347°
2026-02-20 01:46 -12.39477 14.29491 37026 ft 487 kts 347°
2026-02-20 01:46 -12.33017 14.27561 37010 ft 487 kts 347°
2026-02-20 01:47 -12.26510 14.25617 37010 ft 487 kts 347°
2026-02-20 01:47 -12.20004 14.23676 37000 ft 487 kts 347°
2026-02-20 01:48 -12.13491 14.21733 37012 ft 487 kts 347°
2026-02-20 01:48 -12.06982 14.19791 37001 ft 487 kts 347°
2026-02-20 01:49 -12.00469 14.17850 36990 ft 487 kts 347°
2026-02-20 01:49 -11.93962 14.15912 36995 ft 487 kts 347°
2026-02-20 01:50 -11.87451 14.13973 36995 ft 488 kts 347°
2026-02-20 01:50 -11.80934 14.12035 36993 ft 487 kts 347°
2026-02-20 01:51 -11.74422 14.10098 36985 ft 487 kts 347°
2026-02-20 01:51 -11.67920 14.08165 36966 ft 487 kts 347°
2026-02-20 01:52 -11.61408 14.06231 36956 ft 487 kts 347°
2026-02-20 01:52 -11.54895 14.04297 36967 ft 487 kts 347°
2026-02-20 01:53 -11.48392 14.02367 36955 ft 487 kts 347°
2026-02-20 01:53 -11.41877 14.00434 36947 ft 487 kts 347°
2026-02-20 01:54 -11.35376 13.98506 36944 ft 487 kts 347°
2026-02-20 01:54 -11.28872 13.96578 36941 ft 487 kts 347°
2026-02-20 01:55 -11.22405 13.94662 36940 ft 487 kts 347°
2026-02-20 01:55 -11.15894 13.92734 36930 ft 487 kts 347°
2026-02-20 01:56 -11.09386 13.90808 36929 ft 487 kts 347°
2026-02-20 01:56 -11.02867 13.88880 36929 ft 488 kts 347°
2026-02-20 01:57 -10.96352 13.86953 36929 ft 488 kts 347°
2026-02-20 01:57 -10.89837 13.85027 36923 ft 488 kts 346°
2026-02-20 01:58 -10.83319 13.83101 36926 ft 488 kts 346°
2026-02-20 01:58 -10.76795 13.81174 36921 ft 488 kts 346°
2026-02-20 01:59 -10.70281 13.79245 36924 ft 488 kts 346°
2026-02-20 01:59 -10.63757 13.77309 36923 ft 488 kts 346°
2026-02-20 02:00 -10.57236 13.75375 36923 ft 488 kts 346°
2026-02-20 02:00 -10.50719 13.73444 36924 ft 488 kts 346°
2026-02-20 02:01 -10.44202 13.71515 36922 ft 488 kts 346°
2026-02-20 02:01 -10.37680 13.69585 36922 ft 488 kts 346°
2026-02-20 02:02 -10.31166 13.67658 36923 ft 488 kts 346°
2026-02-20 02:02 -10.24651 13.65732 36924 ft 488 kts 346°
2026-02-20 02:03 -10.18133 13.63805 36922 ft 487 kts 346°
2026-02-20 02:03 -10.11624 13.61884 36939 ft 487 kts 346°
2026-02-20 02:04 -10.05102 13.59970 36929 ft 487 kts 346°
2026-02-20 02:04 -9.98633 13.58073 36933 ft 487 kts 346°
2026-02-20 02:05 -9.92119 13.56163 36926 ft 488 kts 346°
2026-02-20 02:05 -9.85601 13.54253 36929 ft 488 kts 346°
2026-02-20 02:06 -9.79081 13.52342 36927 ft 488 kts 346°
2026-02-20 02:06 -9.73617 13.50742 36929 ft 488 kts 346°
2026-02-20 02:07 -9.67094 13.48832 36930 ft 488 kts 346°
2026-02-20 02:07 -9.60609 13.46934 36933 ft 488 kts 346°
2026-02-20 02:08 -9.54078 13.45024 36932 ft 489 kts 346°
2026-02-20 02:08 -9.47546 13.43114 36932 ft 489 kts 346°
2026-02-20 02:09 -9.41008 13.41202 36928 ft 489 kts 346°
2026-02-20 02:09 -9.34473 13.39293 36927 ft 489 kts 346°
2026-02-20 02:10 -9.27928 13.37382 36929 ft 489 kts 346°
2026-02-20 02:10 -9.21383 13.35471 36928 ft 490 kts 346°
2026-02-20 02:11 -9.14830 13.33558 36924 ft 490 kts 346°
2026-02-20 02:11 -9.08283 13.31648 36915 ft 490 kts 346°
2026-02-20 02:12 -9.01728 13.29737 36908 ft 490 kts 346°
2026-02-20 02:12 -8.95170 13.27825 36900 ft 490 kts 346°
2026-02-20 02:13 -8.88612 13.25914 36898 ft 491 kts 346°
2026-02-20 02:13 -8.82134 13.23702 36897 ft 493 kts 341°
2026-02-20 02:14 -8.75773 13.21097 36925 ft 493 kts 340°
2026-02-20 02:14 -8.69432 13.18427 36924 ft 493 kts 340°
2026-02-20 02:15 -8.63094 13.15759 36925 ft 493 kts 340°
2026-02-20 02:15 -8.56752 13.13101 36921 ft 493 kts 340°
2026-02-20 02:16 -8.50411 13.10452 36925 ft 493 kts 340°
2026-02-20 02:16 -8.44064 13.07801 36917 ft 494 kts 340°
2026-02-20 02:17 -8.37720 13.05152 36919 ft 494 kts 340°
2026-02-20 02:17 -8.31372 13.02502 36920 ft 494 kts 340°
2026-02-20 02:18 -8.25023 12.99853 36917 ft 494 kts 340°
2026-02-20 02:18 -8.18673 12.97204 36918 ft 493 kts 340°
2026-02-20 02:19 -8.12334 12.94561 36917 ft 493 kts 340°
2026-02-20 02:19 -8.05986 12.91914 36918 ft 493 kts 340°
2026-02-20 02:20 -7.99682 12.89288 36921 ft 493 kts 340°
2026-02-20 02:20 -7.93338 12.86645 36917 ft 493 kts 340°
2026-02-20 02:21 -7.86993 12.84002 36917 ft 493 kts 340°
2026-02-20 02:21 -7.80647 12.81360 36916 ft 493 kts 340°
2026-02-20 02:22 -7.74308 12.78722 36914 ft 493 kts 340°
2026-02-20 02:22 -7.67964 12.76083 36914 ft 493 kts 340°
2026-02-20 02:23 -7.61629 12.73448 36912 ft 492 kts 340°
2026-02-20 02:23 -7.55298 12.70816 36914 ft 492 kts 340°
2026-02-20 02:24 -7.48969 12.68185 36915 ft 492 kts 340°
2026-02-20 02:24 -7.42647 12.65558 36916 ft 491 kts 340°
2026-02-20 02:25 -7.36332 12.62936 36915 ft 491 kts 340°
2026-02-20 02:25 -7.30022 12.60315 36914 ft 491 kts 340°
2026-02-20 02:26 -7.23713 12.57696 36913 ft 490 kts 340°
2026-02-20 02:26 -7.17408 12.55080 36914 ft 490 kts 340°
2026-02-20 02:27 -7.11106 12.52465 36915 ft 490 kts 340°
2026-02-20 02:27 -7.04813 12.49855 36911 ft 489 kts 340°
2026-02-20 02:28 -6.98518 12.47245 36915 ft 489 kts 340°
2026-02-20 02:28 -6.92226 12.44636 36914 ft 489 kts 340°
2026-02-20 02:29 -6.85938 12.42027 36914 ft 489 kts 340°
2026-02-20 02:29 -6.79651 12.39419 36914 ft 489 kts 340°
2026-02-20 02:30 -6.73357 12.36810 36915 ft 489 kts 340°
2026-02-20 02:30 -6.67061 12.34200 36915 ft 489 kts 340°
2026-02-20 02:31 -6.60768 12.31593 36915 ft 489 kts 340°
2026-02-20 02:31 -6.54471 12.28984 36914 ft 490 kts 340°
2026-02-20 02:32 -6.48173 12.26377 36911 ft 490 kts 340°
2026-02-20 02:33 -6.38768 12.22483 36916 ft 489 kts 340°
2026-02-20 02:33 -6.32479 12.19880 36911 ft 489 kts 340°
2026-02-20 02:34 -6.26187 12.17277 36913 ft 489 kts 340°
2026-02-20 02:34 -6.19900 12.14677 36909 ft 488 kts 340°
2026-02-20 02:35 -6.13620 12.12080 36911 ft 488 kts 340°
2026-02-20 02:35 -6.07337 12.09483 36911 ft 488 kts 339°
2026-02-20 02:36 -6.01054 12.06886 36911 ft 489 kts 339°
2026-02-20 02:36 -5.94760 12.04285 36908 ft 489 kts 339°
2026-02-20 02:37 -5.88467 12.01686 36911 ft 489 kts 339°
2026-02-20 02:37 -5.82166 11.99083 36909 ft 490 kts 339°
2026-02-20 02:38 -5.75866 11.96482 36905 ft 490 kts 339°
2026-02-20 02:38 -5.69563 11.93880 36905 ft 490 kts 339°
2026-02-20 02:39 -5.63251 11.91276 36906 ft 490 kts 339°
2026-02-20 02:39 -5.56938 11.88671 36906 ft 491 kts 339°
2026-02-20 02:40 -5.50617 11.86063 36906 ft 491 kts 339°
2026-02-20 02:40 -5.44299 11.83458 36905 ft 491 kts 339°
2026-02-20 02:41 -5.38023 11.80870 36908 ft 491 kts 339°
2026-02-20 02:41 -5.31700 11.78263 36906 ft 491 kts 339°
2026-02-20 02:42 -5.25382 11.75659 36902 ft 491 kts 339°
2026-02-20 02:42 -5.19049 11.73050 36904 ft 492 kts 339°
2026-02-20 02:43 -5.12639 11.70697 36905 ft 490 kts 347°
2026-02-20 02:43 -5.05903 11.69762 36904 ft 489 kts 356°
2026-02-20 02:44 -4.99112 11.69281 36904 ft 489 kts 358°
2026-02-20 02:44 -4.92312 11.68871 36905 ft 490 kts 358°
2026-02-20 02:45 -4.85509 11.68433 36903 ft 490 kts 357°
2026-02-20 02:45 -4.78703 11.67971 36902 ft 490 kts 357°
2026-02-20 02:46 -4.71897 11.67502 36906 ft 490 kts 357°
2026-02-20 02:46 -4.65085 11.67032 36906 ft 490 kts 357°
2026-02-20 02:47 -4.58280 11.66564 36903 ft 491 kts 357°
2026-02-20 02:47 -4.51467 11.66097 36905 ft 491 kts 357°
2026-02-20 02:48 -4.44656 11.65629 36906 ft 491 kts 357°
2026-02-20 02:48 -4.37888 11.65165 36905 ft 491 kts 357°
2026-02-20 02:49 -4.31033 11.64696 36905 ft 491 kts 357°
2026-02-20 02:49 -4.24218 11.64232 36910 ft 491 kts 357°
2026-02-20 02:50 -4.17452 11.63766 36913 ft 491 kts 357°
2026-02-20 02:50 -4.10630 11.63298 36912 ft 491 kts 357°
2026-02-20 02:51 -4.03809 11.62831 36914 ft 491 kts 357°
2026-02-20 02:51 -3.96998 11.62364 36918 ft 491 kts 357°
2026-02-20 02:52 -3.90187 11.61899 36919 ft 490 kts 357°
2026-02-20 02:52 -3.83386 11.61433 36923 ft 490 kts 357°
2026-02-20 02:53 -3.76589 11.60968 36925 ft 489 kts 357°
2026-02-20 02:53 -3.69792 11.60503 36928 ft 489 kts 357°
2026-02-20 02:54 -3.64173 11.59855 36933 ft 490 kts 349°
2026-02-20 02:54 -3.57511 11.58368 36934 ft 491 kts 347°
2026-02-20 02:55 -3.50870 11.56735 36931 ft 492 kts 347°
2026-02-20 02:55 -3.44223 11.55087 36934 ft 492 kts 347°
2026-02-20 02:56 -3.37573 11.53456 36935 ft 492 kts 347°
2026-02-20 02:56 -3.30912 11.51834 36940 ft 493 kts 347°
2026-02-20 02:57 -3.24250 11.50214 36941 ft 493 kts 347°
2026-02-20 02:57 -3.17586 11.48593 36940 ft 493 kts 347°
2026-02-20 02:58 -3.10913 11.46970 36943 ft 493 kts 347°
2026-02-20 02:58 -3.04242 11.45348 36943 ft 494 kts 347°
2026-02-20 02:59 -2.97561 11.43722 36941 ft 494 kts 347°
2026-02-20 02:59 -2.90879 11.42097 36943 ft 494 kts 347°
2026-02-20 03:00 -2.84242 11.40483 36944 ft 494 kts 347°
2026-02-20 03:00 -2.77559 11.38858 36946 ft 495 kts 347°
2026-02-20 03:01 -2.70870 11.37232 36942 ft 495 kts 347°
2026-02-20 03:01 -2.64181 11.35606 36942 ft 495 kts 347°
2026-02-20 03:02 -2.57495 11.33981 36939 ft 494 kts 347°
2026-02-20 03:02 -2.50807 11.32356 36938 ft 495 kts 347°
2026-02-20 03:03 -2.44121 11.30731 36937 ft 495 kts 347°
2026-02-20 03:03 -2.37424 11.29104 36941 ft 495 kts 347°
2026-02-20 03:04 -2.30717 11.27474 36940 ft 496 kts 347°
2026-02-20 03:04 -2.24006 11.25844 36938 ft 497 kts 347°
2026-02-20 03:05 -2.17285 11.24211 36937 ft 498 kts 347°
2026-02-20 03:05 -2.10549 11.22575 36937 ft 498 kts 347°
2026-02-20 03:06 -2.03811 11.20939 36939 ft 499 kts 347°
2026-02-20 03:06 -1.97060 11.19299 36939 ft 499 kts 347°
2026-02-20 03:07 -1.86923 11.16838 36935 ft 500 kts 347°
2026-02-20 03:07 -1.80155 11.15195 36938 ft 501 kts 347°
2026-02-20 03:08 -1.73387 11.13552 36937 ft 501 kts 347°
2026-02-20 03:08 -1.66607 11.11906 36945 ft 502 kts 347°
2026-02-20 03:09 -1.59818 11.10259 36942 ft 502 kts 347°
2026-02-20 03:09 -1.53066 11.08620 36942 ft 502 kts 347°
2026-02-20 03:10 -1.46229 11.06960 36939 ft 503 kts 347°
2026-02-20 03:10 -1.39471 11.05320 36937 ft 503 kts 347°
2026-02-20 03:11 -1.32667 11.03669 36939 ft 503 kts 347°
2026-02-20 03:11 -1.25862 11.02018 36935 ft 504 kts 347°
2026-02-20 03:12 -1.19049 11.00364 36936 ft 504 kts 347°
2026-02-20 03:12 -1.12231 10.98709 36937 ft 504 kts 347°
2026-02-20 03:13 -1.05419 10.97057 36930 ft 504 kts 348°
2026-02-20 03:13 -0.98594 10.95402 36933 ft 504 kts 348°
2026-02-20 03:14 -0.91777 10.93748 36931 ft 504 kts 348°
2026-02-20 03:14 -0.84953 10.92092 36930 ft 504 kts 348°
2026-02-20 03:15 -0.78136 10.90439 36931 ft 505 kts 348°
2026-02-20 03:15 -0.71309 10.88784 36926 ft 504 kts 348°
2026-02-20 03:16 -0.64489 10.87132 36929 ft 504 kts 348°
2026-02-20 03:16 -0.57718 10.85486 36927 ft 504 kts 348°
2026-02-20 03:17 -0.50906 10.83831 36929 ft 504 kts 348°
2026-02-20 03:17 -0.44095 10.82177 36927 ft 503 kts 348°
2026-02-20 03:18 -0.37291 10.80526 36922 ft 503 kts 348°
2026-02-20 03:18 -0.30486 10.78874 36920 ft 503 kts 348°
2026-02-20 03:19 -0.23689 10.77225 36917 ft 503 kts 348°
2026-02-20 03:19 -0.16891 10.75574 36917 ft 503 kts 348°
2026-02-20 03:20 -0.10099 10.73925 36918 ft 502 kts 348°
2026-02-20 03:20 -0.03308 10.72277 36917 ft 502 kts 348°
2026-02-20 03:21 0.03489 10.70630 36919 ft 502 kts 348°
2026-02-20 03:21 0.10267 10.68980 36919 ft 502 kts 348°
2026-02-20 03:22 0.17047 10.67330 36923 ft 501 kts 348°
2026-02-20 03:22 0.23823 10.65683 36928 ft 501 kts 348°
2026-02-20 03:23 0.30594 10.64037 36924 ft 501 kts 347°
2026-02-20 03:23 0.37369 10.62391 36924 ft 500 kts 347°
2026-02-20 03:24 0.44132 10.60748 36935 ft 500 kts 347°
2026-02-20 03:24 0.50889 10.59105 36935 ft 500 kts 347°
2026-02-20 03:25 0.57608 10.57472 36934 ft 500 kts 347°
2026-02-20 03:25 0.64368 10.55830 36938 ft 500 kts 347°
2026-02-20 03:26 0.71120 10.54190 36937 ft 500 kts 347°
2026-02-20 03:26 0.77873 10.52550 36943 ft 499 kts 347°
2026-02-20 03:27 0.84631 10.50908 36945 ft 499 kts 347°
2026-02-20 03:27 0.91381 10.49269 36941 ft 499 kts 347°
2026-02-20 03:28 0.98133 10.47631 36947 ft 499 kts 347°
2026-02-20 03:28 1.04872 10.45995 36946 ft 498 kts 347°
2026-02-20 03:29 1.11610 10.44360 36945 ft 498 kts 347°
2026-02-20 03:29 1.18346 10.42726 36949 ft 498 kts 347°
2026-02-20 03:30 1.25078 10.41091 36947 ft 498 kts 347°
2026-02-20 03:30 1.31800 10.39460 36950 ft 497 kts 347°
2026-02-20 03:31 1.38533 10.37825 36944 ft 497 kts 347°
2026-02-20 03:31 1.45254 10.36194 36949 ft 497 kts 347°
2026-02-20 03:32 1.51980 10.34561 36947 ft 497 kts 347°
2026-02-20 03:32 1.58706 10.32927 36947 ft 497 kts 347°
2026-02-20 03:33 1.65430 10.31294 36942 ft 497 kts 347°
2026-02-20 03:33 1.72151 10.29663 36941 ft 497 kts 347°
2026-02-20 03:34 1.78877 10.28030 36941 ft 497 kts 347°
2026-02-20 03:34 1.85604 10.26396 36938 ft 498 kts 347°
2026-02-20 03:35 1.92336 10.24759 36932 ft 498 kts 347°
2026-02-20 03:35 1.99068 10.23123 36927 ft 498 kts 347°
2026-02-20 03:36 2.05757 10.21496 36927 ft 498 kts 347°
2026-02-20 03:36 2.12493 10.19859 36926 ft 498 kts 347°
2026-02-20 03:37 2.19229 10.18221 36923 ft 498 kts 347°
2026-02-20 03:37 2.25967 10.16584 36922 ft 498 kts 347°
2026-02-20 03:38 2.32707 10.14945 36920 ft 498 kts 347°
2026-02-20 03:38 2.39446 10.13306 36923 ft 498 kts 347°
2026-02-20 03:39 2.46230 10.11656 36920 ft 499 kts 347°
2026-02-20 03:39 2.52928 10.10027 36917 ft 499 kts 347°
2026-02-20 03:40 2.59674 10.08386 36914 ft 499 kts 347°
2026-02-20 03:40 2.66420 10.06744 36912 ft 499 kts 347°
2026-02-20 03:41 2.73173 10.05101 36916 ft 499 kts 347°
2026-02-20 03:41 2.79921 10.03459 36915 ft 499 kts 347°
2026-02-20 03:42 2.86670 10.01817 36908 ft 499 kts 347°
2026-02-20 03:42 2.92286 10.00450 36910 ft 500 kts 347°
2026-02-20 03:43 2.99038 9.98807 36904 ft 500 kts 347°
2026-02-20 03:43 3.05798 9.97161 36904 ft 500 kts 347°
2026-02-20 03:44 3.12556 9.95515 36907 ft 500 kts 347°
2026-02-20 03:44 3.19310 9.93870 36903 ft 500 kts 347°
2026-02-20 03:45 3.26068 9.92224 36901 ft 500 kts 347°
2026-02-20 03:45 3.32829 9.90578 36903 ft 500 kts 347°
2026-02-20 03:46 3.39593 9.88930 36901 ft 500 kts 347°
2026-02-20 03:46 3.46363 9.87280 36898 ft 500 kts 347°
2026-02-20 03:47 3.53120 9.85634 36899 ft 500 kts 347°
2026-02-20 03:47 3.59882 9.83986 36899 ft 500 kts 347°
2026-02-20 03:48 3.66644 9.82337 36897 ft 500 kts 347°
2026-02-20 03:48 3.73406 9.80689 36891 ft 500 kts 347°
2026-02-20 03:49 3.80165 9.79041 36895 ft 500 kts 347°
2026-02-20 03:49 3.86923 9.77393 36898 ft 500 kts 347°
2026-02-20 03:50 3.93677 9.75745 36899 ft 500 kts 347°
2026-02-20 03:50 4.00390 9.73953 36900 ft 500 kts 342°
2026-02-20 03:51 4.06936 9.71721 36897 ft 500 kts 341°
2026-02-20 03:51 4.13487 9.69394 36897 ft 499 kts 341°
2026-02-20 03:52 4.20033 9.67060 36896 ft 499 kts 341°
2026-02-20 03:52 4.26581 9.64736 36900 ft 499 kts 341°
2026-02-20 03:53 4.33135 9.62417 36901 ft 499 kts 341°
2026-02-20 03:53 4.39682 9.60101 36903 ft 499 kts 341°
2026-02-20 03:54 4.46220 9.57787 36910 ft 499 kts 341°
2026-02-20 03:54 4.52898 9.55940 36912 ft 498 kts 347°
2026-02-20 03:55 4.63051 9.53714 36919 ft 498 kts 348°
2026-02-20 03:56 4.69827 9.52268 36922 ft 498 kts 348°
2026-02-20 03:56 4.76597 9.50809 36931 ft 498 kts 348°
2026-02-20 03:57 4.83361 9.49343 36933 ft 498 kts 348°
2026-02-20 03:57 4.90132 9.47873 36935 ft 498 kts 348°
2026-02-20 03:58 4.96907 9.46403 36938 ft 498 kts 348°
2026-02-20 03:58 5.03685 9.44932 36939 ft 499 kts 348°
2026-02-20 03:59 5.10479 9.43457 36936 ft 499 kts 348°
2026-02-20 03:59 5.17259 9.41985 36931 ft 498 kts 348°
2026-02-20 04:00 5.24034 9.40514 36930 ft 498 kts 348°
2026-02-20 04:00 5.30800 9.39044 36923 ft 498 kts 348°
2026-02-20 04:01 5.37567 9.37573 36916 ft 498 kts 348°
2026-02-20 04:01 5.44336 9.36102 36912 ft 498 kts 348°
2026-02-20 04:02 5.51108 9.34630 36909 ft 498 kts 348°
2026-02-20 04:02 5.57878 9.33158 36904 ft 498 kts 348°
2026-02-20 04:03 5.64600 9.31696 36907 ft 498 kts 348°
2026-02-20 04:03 5.71387 9.30353 36906 ft 497 kts 352°
2026-02-20 04:04 5.78252 9.29473 36904 ft 497 kts 353°
2026-02-20 04:04 5.85132 9.28683 36909 ft 497 kts 353°
2026-02-20 04:05 5.92010 9.27900 36903 ft 497 kts 353°
2026-02-20 04:05 5.98880 9.27109 36910 ft 497 kts 353°
2026-02-20 04:06 6.05758 9.26310 36913 ft 497 kts 353°
2026-02-20 04:06 6.12627 9.25511 36915 ft 497 kts 353°
2026-02-20 04:07 6.19498 9.24732 36916 ft 497 kts 354°
2026-02-20 04:07 6.26403 9.24237 36915 ft 497 kts 357°
2026-02-20 04:08 6.33311 9.23870 36919 ft 497 kts 357°
2026-02-20 04:08 6.40222 9.23467 36923 ft 497 kts 356°
2026-02-20 04:09 6.47127 9.23024 36921 ft 497 kts 356°
2026-02-20 04:09 6.54035 9.22566 36921 ft 497 kts 356°
2026-02-20 04:10 6.60941 9.22108 36921 ft 497 kts 356°
2026-02-20 04:10 6.67845 9.21652 36918 ft 498 kts 356°
2026-02-20 04:11 6.74756 9.21197 36917 ft 497 kts 356°
2026-02-20 04:11 6.81664 9.20741 36914 ft 497 kts 356°
2026-02-20 04:12 6.88564 9.20286 36912 ft 497 kts 356°
2026-02-20 04:12 6.95467 9.19830 36913 ft 497 kts 356°
2026-02-20 04:13 7.02373 9.19374 36909 ft 497 kts 356°
2026-02-20 04:13 7.09277 9.18918 36909 ft 497 kts 356°
2026-02-20 04:14 7.16150 9.18176 36905 ft 497 kts 352°
2026-02-20 04:14 7.22995 9.17147 36904 ft 497 kts 351°
2026-02-20 04:15 7.29837 9.16124 36906 ft 497 kts 351°
2026-02-20 04:15 7.36687 9.15164 36905 ft 497 kts 352°
2026-02-20 04:16 7.43546 9.14232 36904 ft 497 kts 352°
2026-02-20 04:16 7.50403 9.13306 36904 ft 497 kts 352°
2026-02-20 04:17 7.57261 9.12376 36911 ft 497 kts 352°
2026-02-20 04:17 7.64118 9.11444 36904 ft 497 kts 352°
2026-02-20 04:18 7.70973 9.10512 36905 ft 497 kts 352°
2026-02-20 04:18 7.77825 9.09580 36905 ft 497 kts 352°
2026-02-20 04:19 7.84681 9.08647 36906 ft 497 kts 352°
2026-02-20 04:19 7.91533 9.07714 36907 ft 497 kts 352°
2026-02-20 04:20 7.98388 9.06781 36910 ft 497 kts 352°
2026-02-20 04:20 8.05197 9.05854 36911 ft 497 kts 352°
2026-02-20 04:21 8.12052 9.04928 36909 ft 497 kts 352°
2026-02-20 04:21 8.18925 9.04092 36914 ft 497 kts 353°
2026-02-20 04:22 8.25799 9.03292 36912 ft 497 kts 353°
2026-02-20 04:22 8.32673 9.02481 36915 ft 497 kts 352°
2026-02-20 04:23 8.39543 9.01644 36915 ft 497 kts 352°
2026-02-20 04:23 8.46410 9.00779 36915 ft 497 kts 352°
2026-02-20 04:24 8.53263 8.99811 36914 ft 497 kts 351°
2026-02-20 04:24 8.60113 8.98827 36915 ft 497 kts 351°
2026-02-20 04:25 8.66973 8.97859 36919 ft 497 kts 351°
2026-02-20 04:25 8.73828 8.96902 36921 ft 498 kts 351°
2026-02-20 04:26 8.80689 8.95947 36929 ft 498 kts 351°
2026-02-20 04:26 8.87548 8.94992 36933 ft 498 kts 351°
2026-02-20 04:27 8.94410 8.94035 36948 ft 498 kts 351°
2026-02-20 04:27 9.00112 8.93240 36957 ft 498 kts 351°
2026-02-20 04:28 9.06978 8.92282 36973 ft 498 kts 351°
2026-02-20 04:28 9.14961 8.91167 36985 ft 499 kts 351°
2026-02-20 04:29 9.21844 8.90205 36997 ft 499 kts 351°
2026-02-20 04:29 9.27615 8.89397 37008 ft 499 kts 351°
2026-02-20 04:30 9.34497 8.88433 37015 ft 499 kts 351°
2026-02-20 04:30 9.41377 8.87475 37028 ft 500 kts 351°
2026-02-20 04:31 9.48268 8.86512 37031 ft 500 kts 351°
2026-02-20 04:31 9.55158 8.85545 37039 ft 500 kts 351°
2026-02-20 04:32 9.62047 8.84581 37040 ft 500 kts 351°
2026-02-20 04:32 9.72411 8.83262 37041 ft 501 kts 353°
2026-02-20 04:33 9.79335 8.82523 37041 ft 500 kts 353°
2026-02-20 04:33 9.86265 8.81769 37038 ft 500 kts 353°
2026-02-20 04:34 9.93177 8.80992 37038 ft 500 kts 353°
2026-02-20 04:34 10.00097 8.80205 37033 ft 500 kts 353°
2026-02-20 04:35 10.07015 8.79417 37037 ft 500 kts 353°
2026-02-20 04:35 10.13928 8.78630 37033 ft 500 kts 353°
2026-02-20 04:36 10.20852 8.77842 37030 ft 500 kts 353°
2026-02-20 04:36 10.27774 8.77054 37026 ft 501 kts 353°
2026-02-20 04:37 10.34701 8.76265 37026 ft 501 kts 353°
2026-02-20 04:37 10.41631 8.75475 37027 ft 501 kts 353°
2026-02-20 04:38 10.48517 8.74689 37021 ft 501 kts 353°
2026-02-20 04:38 10.55444 8.73899 37020 ft 501 kts 353°
2026-02-20 04:39 10.62380 8.73108 37016 ft 502 kts 352°
2026-02-20 04:39 10.69316 8.72316 37015 ft 502 kts 352°
2026-02-20 04:40 10.76253 8.71524 37008 ft 502 kts 352°
2026-02-20 04:40 10.83201 8.70730 37007 ft 502 kts 352°
2026-02-20 04:41 10.90140 8.69933 37005 ft 502 kts 352°
2026-02-20 04:41 10.97038 8.68824 37001 ft 501 kts 348°
2026-02-20 04:42 11.03895 8.67502 36999 ft 501 kts 348°
2026-02-20 04:42 11.10749 8.66203 36997 ft 501 kts 348°
2026-02-20 04:43 11.17626 8.64957 36996 ft 502 kts 348°
2026-02-20 04:43 11.24484 8.63738 36995 ft 498 kts 348°
2026-02-20 04:44 11.31278 8.62531 36996 ft 495 kts 348°
2026-02-20 04:44 11.38068 8.61322 36992 ft 495 kts 348°
2026-02-20 04:45 11.44864 8.60109 36994 ft 496 kts 348°
2026-02-20 04:45 11.51659 8.58896 36994 ft 496 kts 348°
2026-02-20 04:46 11.58455 8.57683 36997 ft 496 kts 348°
2026-02-20 04:46 11.65210 8.56476 36999 ft 496 kts 348°
2026-02-20 04:47 11.72062 8.55251 37005 ft 496 kts 348°
2026-02-20 04:47 11.78821 8.54042 37020 ft 496 kts 348°
2026-02-20 04:48 11.85669 8.52817 37039 ft 497 kts 348°
2026-02-20 04:48 11.92433 8.51607 37055 ft 497 kts 348°
2026-02-20 04:49 11.99240 8.50387 37064 ft 497 kts 348°
2026-02-20 04:49 12.06060 8.49198 37061 ft 498 kts 350°
2026-02-20 04:50 12.12950 8.48462 37063 ft 499 kts 353°
2026-02-20 04:50 12.19870 8.47910 37047 ft 499 kts 353°
2026-02-20 04:51 12.26782 8.47312 37030 ft 499 kts 353°
2026-02-20 04:51 12.33695 8.46650 37015 ft 499 kts 352°
2026-02-20 04:52 12.40604 8.45965 36997 ft 499 kts 352°
2026-02-20 04:52 12.47519 8.45278 36994 ft 499 kts 352°
2026-02-20 04:53 12.54431 8.44593 36993 ft 499 kts 352°
2026-02-20 04:53 12.61347 8.43910 36997 ft 499 kts 352°
2026-02-20 04:54 12.68265 8.43226 36996 ft 499 kts 352°
2026-02-20 04:54 12.75180 8.42542 37001 ft 500 kts 352°
2026-02-20 04:55 12.82105 8.41860 37000 ft 500 kts 352°
2026-02-20 04:55 12.88983 8.41177 37001 ft 500 kts 352°
2026-02-20 04:56 12.95907 8.40487 36998 ft 500 kts 352°
2026-02-20 04:56 13.02828 8.39798 36999 ft 500 kts 352°
2026-02-20 04:57 13.09753 8.39111 37000 ft 500 kts 352°
2026-02-20 04:57 13.16681 8.38460 37000 ft 500 kts 352°
2026-02-20 04:58 13.23612 8.37820 37001 ft 500 kts 352°
2026-02-20 04:58 13.30550 8.37177 36998 ft 500 kts 352°
2026-02-20 04:59 13.37485 8.36530 37000 ft 501 kts 352°
2026-02-20 04:59 13.44425 8.35881 37003 ft 501 kts 352°
2026-02-20 05:00 13.51366 8.35232 37002 ft 501 kts 352°
2026-02-20 05:00 13.58310 8.34582 37001 ft 501 kts 352°
2026-02-20 05:01 13.65252 8.33932 37001 ft 501 kts 352°
2026-02-20 05:01 13.72153 8.33285 37003 ft 501 kts 352°
2026-02-20 05:02 13.79093 8.32631 37000 ft 501 kts 352°
2026-02-20 05:02 13.86045 8.31977 37004 ft 501 kts 352°
2026-02-20 05:03 13.92991 8.31325 37008 ft 501 kts 352°
2026-02-20 05:03 13.99939 8.30671 37000 ft 502 kts 352°
2026-02-20 05:04 14.06896 8.30016 37011 ft 502 kts 352°
2026-02-20 05:04 14.13846 8.29361 37017 ft 502 kts 352°
2026-02-20 05:05 14.20798 8.28705 37015 ft 502 kts 352°
2026-02-20 05:05 14.27751 8.28048 37012 ft 502 kts 352°
2026-02-20 05:06 14.34703 8.27392 37012 ft 502 kts 352°
2026-02-20 05:06 14.41653 8.26735 37014 ft 502 kts 352°
2026-02-20 05:07 14.48607 8.26077 37018 ft 502 kts 352°
2026-02-20 05:07 14.55559 8.25419 37020 ft 502 kts 352°
2026-02-20 05:08 14.62514 8.24760 37023 ft 502 kts 352°
2026-02-20 05:08 14.69464 8.24102 37025 ft 502 kts 352°
2026-02-20 05:09 14.76417 8.23442 37029 ft 502 kts 352°
2026-02-20 05:09 14.83329 8.22787 37027 ft 502 kts 352°
2026-02-20 05:10 14.90281 8.22127 37023 ft 502 kts 352°
2026-02-20 05:10 14.97237 8.21466 37023 ft 502 kts 352°
2026-02-20 05:11 15.04196 8.20804 37024 ft 502 kts 351°
2026-02-20 05:11 15.11152 8.20148 37030 ft 502 kts 351°
2026-02-20 05:12 15.18112 8.19487 37029 ft 502 kts 351°
2026-02-20 05:12 15.25072 8.18825 37030 ft 502 kts 351°
2026-02-20 05:13 15.32024 8.18165 37031 ft 502 kts 351°
2026-02-20 05:13 15.38986 8.17504 37033 ft 502 kts 351°
2026-02-20 05:14 15.45939 8.16843 37038 ft 502 kts 351°
2026-02-20 05:14 15.52898 8.16181 37037 ft 502 kts 351°
2026-02-20 05:15 15.59855 8.15519 37038 ft 502 kts 351°
2026-02-20 05:15 15.66806 8.14857 37041 ft 502 kts 351°
2026-02-20 05:16 15.72588 8.14306 37043 ft 502 kts 351°
2026-02-20 05:16 15.79537 8.13644 37047 ft 502 kts 351°
2026-02-20 05:17 15.86488 8.12980 37043 ft 501 kts 351°
2026-02-20 05:17 15.93437 8.12317 37047 ft 501 kts 351°
2026-02-20 05:18 16.00384 8.11653 37052 ft 501 kts 351°
2026-02-20 05:18 16.07332 8.10989 37046 ft 501 kts 351°
2026-02-20 05:19 16.14275 8.10324 37052 ft 501 kts 351°
2026-02-20 05:19 16.21216 8.09660 37052 ft 501 kts 351°
2026-02-20 05:20 16.28164 8.08994 37053 ft 501 kts 351°
2026-02-20 05:21 16.38578 8.07995 37054 ft 501 kts 351°
2026-02-20 05:21 16.45517 8.07329 37053 ft 501 kts 351°
2026-02-20 05:22 16.52411 8.06667 37052 ft 501 kts 351°
2026-02-20 05:22 16.59355 8.06000 37052 ft 501 kts 351°
2026-02-20 05:23 16.66289 8.05333 37053 ft 501 kts 351°
2026-02-20 05:23 16.73229 8.04665 37057 ft 501 kts 351°
2026-02-20 05:24 16.80168 8.03996 37062 ft 501 kts 351°
2026-02-20 05:24 16.87103 8.03328 37060 ft 501 kts 351°
2026-02-20 05:25 16.94037 8.02659 37060 ft 501 kts 351°
2026-02-20 05:25 17.00975 8.02003 37065 ft 501 kts 351°
2026-02-20 05:26 17.07934 8.01444 37062 ft 501 kts 352°
2026-02-20 05:26 17.14894 8.00911 37060 ft 502 kts 352°
2026-02-20 05:27 17.21856 8.00365 37060 ft 502 kts 352°
2026-02-20 05:27 17.28811 7.99807 37064 ft 502 kts 351°
2026-02-20 05:28 17.35774 7.99244 37066 ft 502 kts 351°
2026-02-20 05:28 17.42734 7.98683 37070 ft 502 kts 351°
2026-02-20 05:29 17.49696 7.98120 37069 ft 502 kts 351°
2026-02-20 05:29 17.56667 7.97556 37074 ft 502 kts 351°
2026-02-20 05:30 17.63632 7.96993 37078 ft 502 kts 351°
2026-02-20 05:30 17.70597 7.96429 37084 ft 502 kts 351°
2026-02-20 05:31 17.77570 7.95864 37088 ft 503 kts 351°
2026-02-20 05:31 17.84550 7.95298 37074 ft 503 kts 351°
2026-02-20 05:32 17.91525 7.94733 37090 ft 503 kts 351°
2026-02-20 05:32 17.98510 7.94166 37083 ft 503 kts 351°
2026-02-20 05:33 18.05492 7.93598 37084 ft 503 kts 351°
2026-02-20 05:33 18.12431 7.93034 37082 ft 504 kts 351°
2026-02-20 05:34 18.19421 7.92465 37087 ft 504 kts 351°
2026-02-20 05:34 18.26414 7.91895 37091 ft 504 kts 351°
2026-02-20 05:35 18.33407 7.91325 37080 ft 504 kts 351°
2026-02-20 05:35 18.40401 7.90755 37089 ft 504 kts 351°
2026-02-20 05:36 18.47405 7.90183 37086 ft 505 kts 351°
2026-02-20 05:36 18.54409 7.89611 37090 ft 505 kts 351°
2026-02-20 05:37 18.61410 7.89038 37090 ft 505 kts 351°
2026-02-20 05:37 18.68414 7.88465 37093 ft 505 kts 351°
2026-02-20 05:38 18.75422 7.87891 37095 ft 505 kts 351°
2026-02-20 05:38 18.82428 7.87316 37094 ft 505 kts 351°
2026-02-20 05:39 18.89444 7.86743 37098 ft 505 kts 351°
2026-02-20 05:39 18.96450 7.86167 37098 ft 505 kts 351°
2026-02-20 05:40 19.03457 7.85590 37100 ft 505 kts 351°
2026-02-20 05:40 19.10418 7.85018 37100 ft 505 kts 351°
2026-02-20 05:41 19.17434 7.84440 37102 ft 505 kts 351°
2026-02-20 05:41 19.24439 7.83862 37103 ft 505 kts 350°
2026-02-20 05:42 19.31448 7.83284 37102 ft 505 kts 350°
2026-02-20 05:42 19.38461 7.82705 37100 ft 505 kts 350°
2026-02-20 05:43 19.45479 7.82125 37104 ft 506 kts 350°
2026-02-20 05:43 19.52495 7.81549 37106 ft 506 kts 350°
2026-02-20 05:44 19.63028 7.80713 37107 ft 506 kts 350°
2026-02-20 05:44 19.70058 7.80157 37113 ft 506 kts 350°
2026-02-20 05:45 19.77085 7.79598 37112 ft 507 kts 350°
2026-02-20 05:45 19.84116 7.79039 37118 ft 507 kts 350°
2026-02-20 05:46 19.91102 7.78482 37113 ft 507 kts 350°
2026-02-20 05:46 19.98134 7.77920 37127 ft 507 kts 350°
2026-02-20 05:47 20.05167 7.77358 37122 ft 507 kts 350°
2026-02-20 05:47 20.12208 7.76796 37126 ft 507 kts 350°
2026-02-20 05:48 20.19239 7.76233 37126 ft 507 kts 350°
2026-02-20 05:48 20.26279 7.75669 37131 ft 507 kts 350°
2026-02-20 05:49 20.33320 7.75105 37124 ft 507 kts 350°
2026-02-20 05:49 20.40363 7.74540 37125 ft 507 kts 349°
2026-02-20 05:50 20.47399 7.73975 37133 ft 507 kts 349°
2026-02-20 05:50 20.54438 7.73408 37132 ft 507 kts 349°
2026-02-20 05:51 20.61482 7.72841 37133 ft 507 kts 349°
2026-02-20 05:51 20.68516 7.72275 37134 ft 507 kts 349°
2026-02-20 05:52 20.75556 7.71707 37138 ft 507 kts 349°
2026-02-20 05:52 20.82594 7.71140 37140 ft 507 kts 349°
2026-02-20 05:53 20.89631 7.70572 37138 ft 507 kts 349°
2026-02-20 05:53 20.96667 7.70003 37140 ft 507 kts 349°
2026-02-20 05:54 21.03652 7.69221 37143 ft 504 kts 346°
2026-02-20 05:54 21.10590 7.68178 37142 ft 503 kts 345°
2026-02-20 05:55 21.17514 7.67120 37148 ft 503 kts 345°
2026-02-20 05:55 21.24454 7.66115 37146 ft 503 kts 346°
2026-02-20 05:56 21.31399 7.65139 37150 ft 503 kts 346°
2026-02-20 05:56 21.38349 7.64169 37153 ft 503 kts 346°
2026-02-20 05:57 21.45289 7.63197 37156 ft 503 kts 346°
2026-02-20 05:57 21.52187 7.62228 37156 ft 503 kts 345°
2026-02-20 05:58 21.59128 7.61252 37158 ft 503 kts 345°
2026-02-20 05:58 21.66068 7.60275 37162 ft 503 kts 345°
2026-02-20 05:59 21.73007 7.59297 37162 ft 503 kts 345°
2026-02-20 05:59 21.79944 7.58318 37166 ft 503 kts 345°
2026-02-20 06:00 21.86883 7.57338 37170 ft 503 kts 345°
2026-02-20 06:00 21.93818 7.56358 37172 ft 502 kts 345°
2026-02-20 06:01 22.00749 7.55378 37176 ft 502 kts 345°
2026-02-20 06:01 22.07682 7.54396 37180 ft 502 kts 345°
2026-02-20 06:02 22.14613 7.53415 37188 ft 502 kts 345°
2026-02-20 06:02 22.21548 7.52431 37185 ft 502 kts 345°
2026-02-20 06:03 22.28477 7.51446 37197 ft 503 kts 345°
2026-02-20 06:03 22.35412 7.50460 37203 ft 503 kts 345°
2026-02-20 06:04 22.42351 7.49472 37204 ft 503 kts 345°
2026-02-20 06:04 22.49283 7.48485 37213 ft 503 kts 345°
2026-02-20 06:05 22.55046 7.47663 37210 ft 502 kts 345°
2026-02-20 06:05 22.61979 7.46673 37213 ft 502 kts 345°
2026-02-20 06:06 22.68910 7.45683 37218 ft 502 kts 345°
2026-02-20 06:06 22.75834 7.44693 37220 ft 502 kts 345°
2026-02-20 06:07 22.82763 7.43701 37225 ft 502 kts 344°
2026-02-20 06:07 22.89683 7.42710 37226 ft 501 kts 344°
2026-02-20 06:08 22.96600 7.41717 37226 ft 501 kts 344°
2026-02-20 06:08 23.03516 7.40724 37217 ft 501 kts 344°
2026-02-20 06:09 23.10425 7.39731 37222 ft 501 kts 344°
2026-02-20 06:09 23.17335 7.38736 37223 ft 500 kts 344°
2026-02-20 06:10 23.24232 7.37743 37220 ft 500 kts 344°
2026-02-20 06:10 23.31129 7.36748 37231 ft 500 kts 343°
2026-02-20 06:11 23.38017 7.35754 37222 ft 499 kts 343°
2026-02-20 06:11 23.44903 7.34759 37222 ft 499 kts 343°
2026-02-20 06:12 23.51786 7.33763 37221 ft 499 kts 343°
2026-02-20 06:12 23.58670 7.32939 37222 ft 502 kts 345°
2026-02-20 06:13 23.65629 7.32264 37225 ft 503 kts 346°
2026-02-20 06:13 23.72596 7.31587 37225 ft 502 kts 346°
2026-02-20 06:14 23.79548 7.30870 37231 ft 502 kts 345°
2026-02-20 06:14 23.86503 7.30136 37232 ft 502 kts 345°
2026-02-20 06:15 23.93453 7.29396 37233 ft 502 kts 345°
2026-02-20 06:15 24.00404 7.28657 37241 ft 502 kts 345°
2026-02-20 06:16 24.07357 7.27919 37237 ft 502 kts 345°
2026-02-20 06:16 24.14303 7.27180 37237 ft 502 kts 345°
2026-02-20 06:17 24.21261 7.26439 37243 ft 502 kts 345°
2026-02-20 06:17 24.28209 7.25701 37236 ft 502 kts 345°
2026-02-20 06:18 24.35157 7.24964 37240 ft 502 kts 345°
2026-02-20 06:18 24.42097 7.24219 37242 ft 501 kts 345°
2026-02-20 06:19 24.48988 7.23481 37250 ft 501 kts 345°
2026-02-20 06:19 24.55922 7.22738 37251 ft 500 kts 345°
2026-02-20 06:20 24.62847 7.21996 37254 ft 500 kts 345°
2026-02-20 06:20 24.69772 7.21253 37252 ft 500 kts 344°
2026-02-20 06:21 24.76695 7.20511 37256 ft 499 kts 344°
2026-02-20 06:21 24.83602 7.19769 37260 ft 499 kts 344°
2026-02-20 06:22 24.90516 7.19025 37260 ft 499 kts 344°
2026-02-20 06:22 24.97414 7.18281 37261 ft 498 kts 344°
2026-02-20 06:23 25.04315 7.17539 37260 ft 498 kts 344°
2026-02-20 06:23 25.11212 7.16797 37264 ft 497 kts 344°
2026-02-20 06:24 25.18098 7.16056 37258 ft 497 kts 344°
2026-02-20 06:24 25.24981 7.15313 37258 ft 497 kts 344°
2026-02-20 06:25 25.31855 7.14571 37254 ft 496 kts 344°
2026-02-20 06:25 25.38715 7.13830 37257 ft 496 kts 344°
2026-02-20 06:26 25.45583 7.13085 37251 ft 495 kts 344°
2026-02-20 06:26 25.52437 7.12343 37255 ft 495 kts 344°
2026-02-20 06:27 25.59283 7.11600 37248 ft 494 kts 344°
2026-02-20 06:27 25.66132 7.10857 37246 ft 494 kts 344°
2026-02-20 06:28 25.72965 7.10115 37250 ft 493 kts 344°
2026-02-20 06:28 25.79797 7.09367 37240 ft 493 kts 344°
2026-02-20 06:29 25.86630 7.08620 37234 ft 493 kts 344°
2026-02-20 06:29 25.93441 7.07884 37267 ft 491 kts 344°
2026-02-20 06:30 26.00261 7.07142 37264 ft 493 kts 344°
2026-02-20 06:30 26.07040 7.06379 37240 ft 492 kts 344°
2026-02-20 06:31 26.13896 7.05628 37241 ft 493 kts 344°
2026-02-20 06:31 26.20676 7.04894 37234 ft 491 kts 344°
2026-02-20 06:32 26.27474 7.04173 37238 ft 491 kts 344°
2026-02-20 06:32 26.34262 7.03448 37233 ft 490 kts 344°
2026-02-20 06:33 26.41054 7.02708 37232 ft 490 kts 344°
2026-02-20 06:33 26.47837 7.01975 37234 ft 490 kts 345°
2026-02-20 06:34 26.54618 7.01246 37236 ft 490 kts 345°
2026-02-20 06:34 26.61412 7.00537 37234 ft 490 kts 345°
2026-02-20 06:35 26.68195 6.99816 37230 ft 489 kts 345°
2026-02-20 06:35 26.74970 6.99095 37236 ft 489 kts 345°
2026-02-20 06:36 26.81738 6.98364 37236 ft 489 kts 345°
2026-02-20 06:36 26.88509 6.97630 37225 ft 489 kts 346°
2026-02-20 06:37 26.95292 6.96890 37220 ft 489 kts 346°
2026-02-20 06:37 27.02059 6.96141 37233 ft 488 kts 346°
2026-02-20 06:38 27.08814 6.95396 37237 ft 488 kts 346°
2026-02-20 06:38 27.15527 6.94658 37236 ft 488 kts 346°
2026-02-20 06:39 27.22273 6.93920 37239 ft 487 kts 346°
2026-02-20 06:39 27.29016 6.93183 37244 ft 487 kts 346°
2026-02-20 06:40 27.35762 6.92445 37242 ft 486 kts 346°
2026-02-20 06:40 27.42498 6.91707 37241 ft 486 kts 346°
2026-02-20 06:41 27.49226 6.90969 37242 ft 486 kts 346°
2026-02-20 06:41 27.55951 6.90233 37245 ft 485 kts 346°
2026-02-20 06:42 27.62678 6.89497 37242 ft 485 kts 347°
2026-02-20 06:42 27.69399 6.88764 37239 ft 485 kts 347°
2026-02-20 06:43 27.76109 6.88029 37237 ft 484 kts 347°
2026-02-20 06:43 27.82816 6.87288 37237 ft 484 kts 347°
2026-02-20 06:44 27.89527 6.86546 37235 ft 484 kts 347°
2026-02-20 06:44 27.96229 6.85803 37240 ft 484 kts 347°
2026-02-20 06:45 28.06231 6.84695 37242 ft 483 kts 347°
2026-02-20 06:46 28.12923 6.83951 37240 ft 483 kts 347°
2026-02-20 06:46 28.19647 6.83482 37246 ft 487 kts 351°
2026-02-20 06:47 28.26436 6.83399 37244 ft 487 kts 352°
2026-02-20 06:47 28.33214 6.83322 37244 ft 487 kts 351°
2026-02-20 06:48 28.39982 6.83187 37244 ft 486 kts 351°
2026-02-20 06:48 28.46747 6.83018 37245 ft 486 kts 351°
2026-02-20 06:49 28.53508 6.82842 37250 ft 486 kts 351°
2026-02-20 06:49 28.60269 6.82660 37238 ft 486 kts 351°
2026-02-20 06:50 28.67025 6.82472 37252 ft 486 kts 351°
2026-02-20 06:50 28.73780 6.82287 37254 ft 486 kts 351°
2026-02-20 06:51 28.80532 6.82103 37254 ft 485 kts 351°
2026-02-20 06:51 28.87288 6.81923 37254 ft 485 kts 351°
2026-02-20 06:52 28.94039 6.81739 37253 ft 485 kts 351°
2026-02-20 06:52 29.00796 6.81566 37258 ft 485 kts 351°
2026-02-20 06:53 29.07549 6.81394 37261 ft 485 kts 351°
2026-02-20 06:53 29.13157 6.81239 37262 ft 485 kts 351°
2026-02-20 06:54 29.19892 6.81053 37261 ft 485 kts 351°
2026-02-20 06:54 29.26632 6.80873 37261 ft 484 kts 351°
2026-02-20 06:55 29.33371 6.80694 37267 ft 484 kts 351°
2026-02-20 06:55 29.40109 6.80513 37274 ft 484 kts 351°
2026-02-20 06:56 29.46838 6.80329 37264 ft 484 kts 351°
2026-02-20 06:56 29.53560 6.80147 37277 ft 483 kts 351°
2026-02-20 06:57 29.60282 6.79965 37273 ft 483 kts 351°
2026-02-20 06:57 29.66997 6.79779 37276 ft 483 kts 351°
2026-02-20 06:58 29.73711 6.79594 37277 ft 482 kts 351°
2026-02-20 06:58 29.80421 6.79412 37277 ft 482 kts 351°
2026-02-20 06:59 29.87133 6.79238 37278 ft 482 kts 352°
2026-02-20 06:59 29.93833 6.79069 37277 ft 482 kts 352°
2026-02-20 07:00 30.00537 6.78908 37282 ft 481 kts 352°
2026-02-20 07:00 30.07181 6.78745 37280 ft 481 kts 352°
2026-02-20 07:01 30.13864 6.78568 37281 ft 480 kts 352°
2026-02-20 07:01 30.20542 6.78385 37281 ft 479 kts 352°
2026-02-20 07:02 30.27207 6.78201 37279 ft 479 kts 352°
2026-02-20 07:02 30.33861 6.78019 37284 ft 478 kts 352°
2026-02-20 07:03 30.40497 6.77833 37281 ft 477 kts 352°
2026-02-20 07:03 30.47123 6.77646 37278 ft 476 kts 352°
2026-02-20 07:04 30.53740 6.77457 37282 ft 475 kts 352°
2026-02-20 07:04 30.60336 6.77269 37285 ft 473 kts 352°
2026-02-20 07:05 30.66912 6.77085 37282 ft 472 kts 352°
2026-02-20 07:05 30.73473 6.76899 37281 ft 471 kts 352°
2026-02-20 07:06 30.80024 6.76716 37282 ft 470 kts 352°
2026-02-20 07:06 30.86549 6.76532 37279 ft 469 kts 352°
2026-02-20 07:07 30.93063 6.76348 37284 ft 467 kts 352°
2026-02-20 07:07 30.99554 6.76168 37276 ft 466 kts 352°
2026-02-20 07:08 31.06024 6.75989 37281 ft 465 kts 352°
2026-02-20 07:08 31.12475 6.75810 37283 ft 463 kts 352°
2026-02-20 07:09 31.18913 6.75631 37287 ft 462 kts 352°
2026-02-20 07:09 31.25337 6.75451 37287 ft 462 kts 352°
2026-02-20 07:10 31.31754 6.75270 37286 ft 461 kts 352°
2026-02-20 07:10 31.38123 6.75088 37287 ft 460 kts 352°
2026-02-20 07:11 31.44568 6.74909 37283 ft 460 kts 352°
2026-02-20 07:11 31.50957 6.74734 37277 ft 459 kts 352°
2026-02-20 07:12 31.57341 6.74556 37293 ft 458 kts 352°
2026-02-20 07:12 31.63710 6.74378 37283 ft 458 kts 352°
2026-02-20 07:13 31.70033 6.74200 37287 ft 457 kts 352°
2026-02-20 07:13 31.76427 6.74020 37290 ft 456 kts 352°
2026-02-20 07:14 31.82730 6.73842 37291 ft 456 kts 352°
2026-02-20 07:14 31.89078 6.73663 37287 ft 456 kts 352°
2026-02-20 07:15 31.95423 6.73484 37287 ft 456 kts 352°
2026-02-20 07:15 32.01768 6.73304 37284 ft 456 kts 352°
2026-02-20 07:16 32.08102 6.73124 37284 ft 456 kts 352°
2026-02-20 07:16 32.14441 6.72944 37284 ft 455 kts 352°
2026-02-20 07:17 32.20770 6.72764 37287 ft 455 kts 352°
2026-02-20 07:17 32.27102 6.72584 37293 ft 455 kts 352°
2026-02-20 07:18 32.33426 6.72401 37290 ft 454 kts 352°
2026-02-20 07:18 32.39743 6.72215 37283 ft 454 kts 352°
2026-02-20 07:19 32.46061 6.72032 37281 ft 454 kts 352°
2026-02-20 07:19 32.52371 6.71850 37287 ft 454 kts 352°
2026-02-20 07:20 32.58683 6.71669 37286 ft 454 kts 352°
2026-02-20 07:20 32.64991 6.71489 37286 ft 453 kts 352°
2026-02-20 07:21 32.71293 6.71309 37292 ft 453 kts 352°
2026-02-20 07:21 32.77597 6.71126 37295 ft 453 kts 352°
2026-02-20 07:22 32.83892 6.70945 37291 ft 452 kts 352°
2026-02-20 07:22 32.90136 6.70764 37289 ft 452 kts 352°
2026-02-20 07:23 32.96413 6.70582 37288 ft 451 kts 352°
2026-02-20 07:23 33.02691 6.70402 37290 ft 451 kts 352°
2026-02-20 07:24 33.08953 6.70222 37293 ft 450 kts 352°
2026-02-20 07:24 33.15198 6.70042 37292 ft 449 kts 352°
2026-02-20 07:25 33.21437 6.69861 37287 ft 448 kts 352°
2026-02-20 07:25 33.27655 6.69679 37286 ft 447 kts 352°
2026-02-20 07:26 33.33866 6.69498 37282 ft 446 kts 352°
2026-02-20 07:26 33.40071 6.69318 37283 ft 445 kts 352°
2026-02-20 07:27 33.46262 6.69136 37281 ft 445 kts 352°
2026-02-20 07:27 33.52441 6.68952 37282 ft 444 kts 352°
2026-02-20 07:28 33.58608 6.68772 37280 ft 443 kts 352°
2026-02-20 07:28 33.64769 6.68594 37283 ft 442 kts 352°
2026-02-20 07:29 33.70914 6.68424 37286 ft 441 kts 352°
2026-02-20 07:29 33.77052 6.68269 37286 ft 441 kts 353°
2026-02-20 07:30 33.83172 6.68107 37285 ft 440 kts 353°
2026-02-20 07:30 33.89285 6.67932 37289 ft 439 kts 352°
2026-02-20 07:31 33.95386 6.67751 37287 ft 439 kts 353°
2026-02-20 07:31 34.01485 6.67569 37286 ft 438 kts 352°
2026-02-20 07:32 34.07579 6.67385 37288 ft 438 kts 353°
2026-02-20 07:32 34.13665 6.67205 37283 ft 437 kts 353°
2026-02-20 07:33 34.19739 6.67026 37276 ft 436 kts 353°
2026-02-20 07:33 34.25760 6.66848 37279 ft 435 kts 353°
2026-02-20 07:34 34.31807 6.66668 37282 ft 434 kts 353°
2026-02-20 07:34 34.37837 6.66488 37293 ft 433 kts 353°
2026-02-20 07:35 34.43852 6.66308 37290 ft 432 kts 353°
2026-02-20 07:35 34.49851 6.66129 37284 ft 431 kts 353°
2026-02-20 07:36 34.55838 6.65950 37289 ft 430 kts 353°
2026-02-20 07:36 34.61811 6.65770 37291 ft 429 kts 353°
2026-02-20 07:37 34.67772 6.65590 37290 ft 428 kts 353°
2026-02-20 07:37 34.73717 6.65411 37292 ft 427 kts 353°
2026-02-20 07:38 34.79645 6.65232 37294 ft 426 kts 353°
2026-02-20 07:38 34.85568 6.65059 37298 ft 425 kts 353°
2026-02-20 07:39 34.91466 6.64891 37303 ft 424 kts 353°
2026-02-20 07:39 34.97372 6.64719 37305 ft 423 kts 353°
2026-02-20 07:40 35.03259 6.64547 37300 ft 424 kts 353°
2026-02-20 07:40 35.08161 6.64411 37307 ft 424 kts 353°
2026-02-20 07:41 35.14059 6.64243 37313 ft 424 kts 353°
2026-02-20 07:41 35.19957 6.64064 37321 ft 424 kts 353°
2026-02-20 07:42 35.25855 6.63863 37330 ft 424 kts 353°
2026-02-20 07:42 35.31765 6.63674 37323 ft 425 kts 354°
2026-02-20 07:43 35.37684 6.63535 37332 ft 425 kts 353°
2026-02-20 07:43 35.46561 6.63285 37336 ft 426 kts 353°
2026-02-20 07:44 35.52484 6.63110 37332 ft 426 kts 353°
2026-02-20 07:44 35.58409 6.62934 37329 ft 426 kts 353°
2026-02-20 07:45 35.64331 6.62756 37322 ft 426 kts 353°
2026-02-20 07:45 35.70208 6.62586 37318 ft 425 kts 353°
2026-02-20 07:46 35.76162 6.62412 37318 ft 425 kts 353°
2026-02-20 07:46 35.82027 6.62239 37318 ft 425 kts 353°
2026-02-20 07:47 35.87939 6.62063 37321 ft 425 kts 354°
2026-02-20 07:47 35.93849 6.61888 37332 ft 424 kts 354°
2026-02-20 07:48 35.99751 6.61713 37324 ft 424 kts 354°
2026-02-20 07:48 36.05645 6.61538 37312 ft 424 kts 354°
2026-02-20 07:49 36.11550 6.61362 37298 ft 424 kts 354°
2026-02-20 07:49 36.17447 6.61185 37284 ft 424 kts 354°
2026-02-20 07:50 36.23357 6.61009 37278 ft 424 kts 354°
2026-02-20 07:50 36.29269 6.60951 37279 ft 428 kts 358°
2026-02-20 07:51 36.35221 6.61676 37279 ft 430 kts
2026-02-20 07:51 36.41163 6.62581 37282 ft 431 kts
2026-02-20 07:52 36.47114 6.63515 37291 ft 431 kts
2026-02-20 07:52 36.53067 6.64428 37292 ft 431 kts
2026-02-20 07:53 36.59016 6.65338 37290 ft 431 kts
2026-02-20 07:53 36.64970 6.66251 37284 ft 431 kts
2026-02-20 07:54 36.70931 6.67162 37283 ft 432 kts
2026-02-20 07:54 36.76860 6.68064 37275 ft 432 kts
2026-02-20 07:55 36.82836 6.68982 37271 ft 433 kts
2026-02-20 07:55 36.88811 6.69913 37262 ft 433 kts
2026-02-20 07:56 36.94801 6.70834 37253 ft 434 kts
2026-02-20 07:56 37.00791 6.71760 37255 ft 434 kts
2026-02-20 07:57 37.06785 6.72681 37252 ft 434 kts
2026-02-20 07:57 37.12768 6.73604 37251 ft 433 kts
2026-02-20 07:58 37.18750 6.74529 37252 ft 433 kts
2026-02-20 07:58 37.24730 6.75457 37244 ft 432 kts
2026-02-20 07:59 37.30696 6.76385 37241 ft 432 kts
2026-02-20 07:59 37.36656 6.77313 37239 ft 431 kts
2026-02-20 08:00 37.42610 6.78241 37235 ft 431 kts
2026-02-20 08:00 37.48497 6.79161 37230 ft 427 kts
2026-02-20 08:01 37.54400 6.80087 37232 ft 422 kts
2026-02-20 08:01 37.60164 6.80990 37231 ft 418 kts
2026-02-20 08:02 37.65918 6.81893 37231 ft 415 kts
2026-02-20 08:02 37.71623 6.82789 37227 ft 411 kts
2026-02-20 08:03 37.77283 6.83679 37224 ft 408 kts
2026-02-20 08:03 37.82901 6.84564 37218 ft 406 kts
2026-02-20 08:04 37.88484 6.85446 37223 ft 403 kts
2026-02-20 08:04 37.94026 6.86321 37235 ft 400 kts
2026-02-20 08:05 37.99540 6.87193 37225 ft 398 kts
2026-02-20 08:05 38.05025 6.88063 37215 ft 396 kts
2026-02-20 08:06 38.10476 6.88929 37217 ft 394 kts
2026-02-20 08:06 38.15903 6.89792 37218 ft 392 kts
2026-02-20 08:07 38.21295 6.90651 37216 ft 390 kts
2026-02-20 08:07 38.26659 6.91507 37214 ft 388 kts
2026-02-20 08:08 38.32000 6.92360 37209 ft 386 kts
2026-02-20 08:08 38.37309 6.93209 37206 ft 384 kts
2026-02-20 08:09 38.42592 6.94055 37205 ft 382 kts
2026-02-20 08:09 38.47812 6.94893 37201 ft 380 kts
2026-02-20 08:10 38.53036 6.95732 37199 ft 378 kts
2026-02-20 08:10 38.58239 6.96569 37195 ft 376 kts
2026-02-20 08:11 38.63412 6.97403 37193 ft 374 kts
2026-02-20 08:11 38.68563 6.98234 37190 ft 372 kts
2026-02-20 08:12 38.73684 6.99062 37187 ft 370 kts
2026-02-20 08:12 38.78780 6.99886 37183 ft 368 kts
2026-02-20 08:13 38.83848 7.00708 37181 ft 366 kts
2026-02-20 08:13 38.88892 7.01527 37175 ft 364 kts
2026-02-20 08:14 38.93912 7.02343 37172 ft 363 kts
2026-02-20 08:14 38.98903 7.03155 37162 ft 361 kts
2026-02-20 08:15 39.03873 7.03844 37157 ft 357 kts 359°
2026-02-20 08:15 39.08810 7.04236 37150 ft 354 kts 358°
2026-02-20 08:16 39.13719 7.04591 37151 ft 352 kts 358°
2026-02-20 08:16 39.18599 7.04981 37146 ft 351 kts 358°
2026-02-20 08:17 39.23456 7.05393 37146 ft 349 kts 358°
2026-02-20 08:17 39.28286 7.05809 37140 ft 347 kts 358°
2026-02-20 08:18 39.33085 7.06221 37144 ft 345 kts 358°
2026-02-20 08:18 39.37864 7.06631 37132 ft 343 kts 358°
2026-02-20 08:19 39.42613 7.07033 37131 ft 341 kts 358°
2026-02-20 08:19 39.47337 7.07412 37130 ft 339 kts 357°
2026-02-20 08:20 39.52034 7.07792 37128 ft 337 kts 357°
2026-02-20 08:20 39.56671 7.08184 37123 ft 335 kts 357°
2026-02-20 08:21 39.61309 7.08584 37126 ft 333 kts 357°
2026-02-20 08:21 39.65923 7.08985 37121 ft 331 kts 357°
2026-02-20 08:22 39.70505 7.09382 37121 ft 329 kts 357°
2026-02-20 08:22 39.75053 7.09777 37118 ft 327 kts 357°
2026-02-20 08:23 39.79578 7.10169 37122 ft 325 kts 357°
2026-02-20 08:23 39.84071 7.10560 37118 ft 322 kts 357°
2026-02-20 08:24 39.88533 7.10948 37106 ft 320 kts 357°
2026-02-20 08:24 39.92966 7.11335 37120 ft 318 kts 357°
2026-02-20 08:25 39.97369 7.11719 37109 ft 316 kts 357°
2026-02-20 08:25 40.01743 7.12101 37115 ft 314 kts 357°
2026-02-20 08:26 40.06082 7.12481 37121 ft 311 kts 357°
2026-02-20 08:26 40.10388 7.12858 37102 ft 309 kts 357°
2026-02-20 08:27 40.14633 7.13231 37104 ft 307 kts 357°
2026-02-20 08:27 40.18872 7.13603 37099 ft 304 kts 357°
2026-02-20 08:28 40.23080 7.13974 37094 ft 302 kts 357°
2026-02-20 08:28 40.27254 7.14341 37087 ft 299 kts 357°
2026-02-20 08:29 40.29328 7.14524 37088 ft 298 kts 357°
2026-02-20 08:29 40.31390 7.14706 37086 ft 297 kts 357°
2026-02-20 08:29 40.33447 7.14887 37083 ft 295 kts 357°
2026-02-20 08:29 40.35496 7.15068 37081 ft 294 kts 357°
2026-02-20 08:30 40.37531 7.15248 37082 ft 293 kts 357°
2026-02-20 08:30 40.38876 7.15367 37077 ft 292 kts 357°
2026-02-20 08:30 40.41577 7.15606 37079 ft 290 kts 357°
2026-02-20 08:30 40.42910 7.15724 37077 ft 289 kts 357°
2026-02-20 08:31 40.44913 7.15902 37074 ft 288 kts 357°
2026-02-20 08:31 40.46905 7.16078 37071 ft 286 kts 357°
2026-02-20 08:31 40.48886 7.16254 37071 ft 285 kts 357°
2026-02-20 08:31 40.50858 7.16429 37069 ft 283 kts 357°
2026-02-20 08:32 40.52843 7.16605 37068 ft 281 kts 357°
2026-02-20 08:32 40.54764 7.16776 37067 ft 280 kts 357°
2026-02-20 08:32 40.58671 7.17118 37067 ft 286 kts 357°
2026-02-20 08:33 40.60681 7.17290 37065 ft 293 kts 358°
2026-02-20 08:33 40.62740 7.17468 37065 ft 300 kts 358°
2026-02-20 08:33 40.64843 7.17651 37063 ft 307 kts 358°
2026-02-20 08:34 40.69204 7.18037 37057 ft 322 kts 358°
2026-02-20 08:34 40.73646 7.18433 37056 ft 336 kts 358°
2026-02-20 08:35 40.80907 7.19084 37049 ft 360 kts 359°
2026-02-20 08:35 40.86006 7.19863 37043 ft 381 kts
2026-02-20 08:36 40.88597 7.20882 37039 ft 396 kts 13°
2026-02-20 08:36 40.91135 7.22478 37037 ft 413 kts 21°
2026-02-20 08:36 40.93529 7.24704 37035 ft 431 kts 30°
2026-02-20 08:36 40.95804 7.27383 37031 ft 443 kts 33°
2026-02-20 08:37 41.00261 7.33114 37021 ft 448 kts 35°
2026-02-20 08:37 41.04670 7.38953 37011 ft 447 kts 35°
2026-02-20 08:38 41.09094 7.44737 37010 ft 447 kts 35°
2026-02-20 08:38 41.13547 7.50485 37005 ft 447 kts 34°
2026-02-20 08:39 41.18009 7.56231 36995 ft 447 kts 34°
2026-02-20 08:39 41.22467 7.61983 36991 ft 447 kts 34°
2026-02-20 08:40 41.26919 7.67744 36986 ft 447 kts 35°
2026-02-20 08:40 41.31342 7.73480 36979 ft 447 kts 35°
2026-02-20 08:41 41.35792 7.79263 36976 ft 447 kts 35°
2026-02-20 08:41 41.40360 7.84808 36972 ft 438 kts 28°
2026-02-20 08:42 41.45576 7.88677 36968 ft 425 kts 16°
2026-02-20 08:42 41.51026 7.91689 36962 ft 423 kts 14°
2026-02-20 08:43 41.56509 7.94567 36957 ft 424 kts 14°
2026-02-20 08:43 41.62001 7.97478 36943 ft 425 kts 15°
2026-02-20 08:44 41.67485 8.00428 36945 ft 425 kts 15°
2026-02-20 08:44 41.72973 8.03400 36953 ft 426 kts 15°
2026-02-20 08:45 41.78464 8.06379 36946 ft 426 kts 15°
2026-02-20 08:45 41.83955 8.09362 36938 ft 426 kts 15°
2026-02-20 08:46 41.89451 8.12352 36935 ft 426 kts 15°
2026-02-20 08:46 41.94944 8.15346 36933 ft 426 kts 15°
2026-02-20 08:47 42.00427 8.18341 36929 ft 425 kts 15°
2026-02-20 08:47 42.05913 8.21344 36928 ft 425 kts 15°
2026-02-20 08:48 42.11384 8.24343 36924 ft 425 kts 15°
2026-02-20 08:48 42.16860 8.27350 36926 ft 424 kts 15°
2026-02-20 08:49 42.22315 8.30352 36925 ft 424 kts 15°
2026-02-20 08:49 42.27769 8.33358 36920 ft 423 kts 15°
2026-02-20 08:50 42.33212 8.36365 36913 ft 422 kts 15°
2026-02-20 08:50 42.38610 8.39346 36919 ft 422 kts 15°
2026-02-20 08:51 42.44032 8.42354 36911 ft 421 kts 15°
2026-02-20 08:51 42.49451 8.45365 36907 ft 420 kts 15°
2026-02-20 08:52 42.54860 8.48375 36906 ft 420 kts 15°
2026-02-20 08:52 42.60274 8.51392 36903 ft 421 kts 15°
2026-02-20 08:53 42.65698 8.54419 36904 ft 421 kts 16°
2026-02-20 08:53 42.71121 8.57453 36907 ft 422 kts 16°
2026-02-20 08:54 42.76555 8.60499 36908 ft 423 kts 16°
2026-02-20 08:54 42.81994 8.63553 36906 ft 424 kts 15°
2026-02-20 08:55 42.87453 8.66624 36915 ft 425 kts 15°
2026-02-20 08:55 42.92915 8.69697 36906 ft 426 kts 15°
2026-02-20 08:56 42.98402 8.72797 36907 ft 427 kts 15°
2026-02-20 08:56 43.03891 8.75905 36902 ft 428 kts 15°
2026-02-20 08:57 43.09369 8.79012 36904 ft 429 kts 15°
2026-02-20 08:57 43.14888 8.82147 36901 ft 430 kts 15°
2026-02-20 08:58 43.20423 8.85297 36901 ft 431 kts 15°
2026-02-20 08:58 43.25974 8.88455 36899 ft 433 kts 15°
2026-02-20 08:59 43.31546 8.91634 36896 ft 434 kts 16°
2026-02-20 08:59 43.37167 8.94588 36892 ft 429 kts 10°
2026-02-20 09:00 43.42981 8.95816 36891 ft 421 kts 358°
2026-02-20 09:00 43.48836 8.95947 36889 ft 419 kts 356°
2026-02-20 09:01 43.54667 8.95888 36889 ft 419 kts 356°
2026-02-20 09:01 43.60486 8.95835 36890 ft 418 kts 356°
2026-02-20 09:02 43.66300 8.95774 36890 ft 417 kts 356°
2026-02-20 09:02 43.72104 8.95594 36887 ft 417 kts 355°
2026-02-20 09:03 43.77895 8.95374 36887 ft 416 kts 355°
2026-02-20 09:03 43.83685 8.95177 36879 ft 416 kts 356°
2026-02-20 09:04 43.89476 8.95002 36884 ft 416 kts 356°
2026-02-20 09:04 43.95261 8.94833 36885 ft 416 kts 356°
2026-02-20 09:05 44.01057 8.94663 36875 ft 417 kts 356°
2026-02-20 09:05 44.06858 8.94493 36872 ft 417 kts 356°
2026-02-20 09:06 44.12672 8.94321 36865 ft 418 kts 357°
2026-02-20 09:06 44.18464 8.94150 36857 ft 419 kts 357°
2026-02-20 09:07 44.24306 8.93977 36850 ft 421 kts 357°
2026-02-20 09:07 44.30171 8.93803 36846 ft 423 kts 357°
2026-02-20 09:08 44.36077 8.93627 36841 ft 426 kts 357°
2026-02-20 09:08 44.42030 8.93448 36841 ft 430 kts 357°
2026-02-20 09:09 44.48029 8.93275 36848 ft 432 kts 357°
2026-02-20 09:09 44.54055 8.93126 36857 ft 434 kts 357°
2026-02-20 09:10 44.60103 8.92965 36861 ft 435 kts 357°
2026-02-20 09:10 44.66168 8.92788 36877 ft 437 kts 357°
2026-02-20 09:11 44.72241 8.92592 36886 ft 436 kts 357°
2026-02-20 09:11 44.78283 8.92389 36886 ft 433 kts 356°
2026-02-20 09:12 44.84294 8.92183 36886 ft 431 kts 357°
2026-02-20 09:12 44.90274 8.91988 36879 ft 428 kts 357°
2026-02-20 09:13 44.96218 8.91804 36873 ft 426 kts 357°
2026-02-20 09:13 45.02131 8.91625 36869 ft 425 kts 357°
2026-02-20 09:14 45.08034 8.91446 36870 ft 423 kts 357°
2026-02-20 09:14 45.13918 8.91266 36872 ft 423 kts 357°
2026-02-20 09:15 45.19799 8.91088 36874 ft 422 kts 358°
2026-02-20 09:15 45.25668 8.90925 36874 ft 422 kts 358°
2026-02-20 09:16 45.31545 8.90770 36889 ft 422 kts 358°
2026-02-20 09:16 45.37414 8.90604 36886 ft 422 kts 358°
2026-02-20 09:17 45.43276 8.90426 36885 ft 421 kts 358°
2026-02-20 09:17 45.49139 8.90243 36887 ft 421 kts 358°
2026-02-20 09:18 45.53981 8.90091 36868 ft 420 kts 358°
2026-02-20 09:18 45.60417 8.89890 36866 ft 420 kts 358°
2026-02-20 09:19 45.66265 8.89707 36867 ft 420 kts 358°
2026-02-20 09:19 45.71164 8.89554 36865 ft 420 kts 358°
2026-02-20 09:20 45.77008 8.89370 36863 ft 420 kts 358°
2026-02-20 09:20 45.78942 8.89308 36861 ft 420 kts 358°
2026-02-20 09:21 45.83841 8.89155 36885 ft 420 kts 358°
2026-02-20 09:21 45.89691 8.88970 36896 ft 420 kts 358°
2026-02-20 09:22 45.95535 8.88784 36900 ft 420 kts 358°
2026-02-20 09:22 46.01352 8.88601 36896 ft 420 kts 358°
2026-02-20 09:23 46.07196 8.88416 36893 ft 420 kts 358°
2026-02-20 09:23 46.13011 8.88238 36898 ft 421 kts 358°
2026-02-20 09:24 46.18899 8.88009 36888 ft 420 kts 356°
2026-02-20 09:24 46.24683 8.87205 36896 ft 420 kts 353°
2026-02-20 09:25 46.30522 8.86147 36902 ft 419 kts 353°
2026-02-20 09:25 46.36314 8.85172 36918 ft 419 kts 353°
2026-02-20 09:26 46.42119 8.84285 36944 ft 420 kts 354°
2026-02-20 09:26 46.47934 8.83418 36982 ft 420 kts 354°
2026-02-20 09:27 46.53704 8.82528 37026 ft 421 kts 353°
2026-02-20 09:27 46.59530 8.81605 37049 ft 421 kts 354°
2026-02-20 09:28 46.62428 8.81165 36662 ft 417 kts 354°
2026-02-20 09:28 46.65304 8.80744 36150 ft 413 kts 354°
2026-02-20 09:28 46.68144 8.80333 35667 ft 409 kts 354°
2026-02-20 09:28 46.70957 8.79918 35119 ft 404 kts 354°
2026-02-20 09:29 46.73742 8.79504 34552 ft 400 kts 354°
2026-02-20 09:29 46.76498 8.79091 34040 ft 396 kts 353°
2026-02-20 09:29 46.79224 8.78671 33362 ft 394 kts 354°
2026-02-20 09:29 46.81946 8.78244 32484 ft 395 kts 354°
2026-02-20 09:30 46.84693 8.77821 31580 ft 397 kts 354°
2026-02-20 09:30 46.87451 8.77397 30699 ft 399 kts 355°
2026-02-20 09:30 46.90210 8.76978 29753 ft 400 kts 355°
2026-02-20 09:30 46.92993 8.76559 28633 ft 404 kts 355°
2026-02-20 09:31 46.95808 8.76133 27549 ft 409 kts 355°
2026-02-20 09:31 46.98645 8.75701 26610 ft 412 kts 355°
2026-02-20 09:31 47.01507 8.75249 25762 ft 413 kts 355°
2026-02-20 09:31 47.04175 8.74824 25008 ft 413 kts 355°
2026-02-20 09:32 47.07040 8.74367 24195 ft 415 kts 355°
2026-02-20 09:32 47.09901 8.73782 23359 ft 416 kts 351°
2026-02-20 09:32 47.12729 8.72993 22655 ft 412 kts 350°
2026-02-20 09:32 47.15521 8.72201 21991 ft 407 kts 351°
2026-02-20 09:33 47.18287 8.71437 21306 ft 403 kts 351°
2026-02-20 09:33 47.21032 8.70693 20667 ft 398 kts 351°
2026-02-20 09:33 47.23730 8.69970 20185 ft 391 kts 351°
2026-02-20 09:33 47.26366 8.69170 19694 ft 384 kts 346°
2026-02-20 09:34 47.28826 8.67846 19240 ft 379 kts 338°
2026-02-20 09:34 47.31233 8.66224 18778 ft 373 kts 337°
2026-02-20 09:34 47.33513 8.64643 18274 ft 353 kts 337°
2026-02-20 09:34 47.35681 8.63138 17750 ft 336 kts 337°
2026-02-20 09:35 47.37694 8.61635 17242 ft 322 kts 334°
2026-02-20 09:35 47.39602 8.60006 16719 ft 310 kts 332°
2026-02-20 09:35 47.41379 8.58454 16243 ft 300 kts 332°
2026-02-20 09:35 47.43025 8.56642 15746 ft 294 kts 317°
2026-02-20 09:36 47.44216 8.54223 15265 ft 290 kts 305°
2026-02-20 09:36 47.45229 8.51664 14845 ft 288 kts 304°
2026-02-20 09:36 47.46210 8.49124 14637 ft 282 kts 303°
2026-02-20 09:36 47.47174 8.46622 14317 ft 280 kts 303°
2026-02-20 09:37 47.48139 8.44129 14013 ft 279 kts 303°
2026-02-20 09:37 47.49102 8.41651 13678 ft 277 kts 303°
2026-02-20 09:37 47.50065 8.39194 13356 ft 275 kts 303°
2026-02-20 09:37 47.51025 8.36763 13020 ft 273 kts 303°
2026-02-20 09:38 47.51981 8.34360 12670 ft 271 kts 303°
2026-02-20 09:38 47.52943 8.31966 12337 ft 269 kts 303°
2026-02-20 09:38 47.53900 8.29607 11991 ft 266 kts 303°
2026-02-20 09:38 47.54854 8.27273 11661 ft 265 kts 303°
2026-02-20 09:39 47.55810 8.24954 11318 ft 263 kts 303°
2026-02-20 09:39 47.56833 8.22728 10993 ft 260 kts 311°
2026-02-20 09:39 47.58090 8.20818 10666 ft 258 kts 317°
2026-02-20 09:39 47.59405 8.19022 10357 ft 256 kts 318°
2026-02-20 09:40 47.60723 8.17252 10038 ft 255 kts 318°
2026-02-20 09:40 47.62030 8.15505 9672 ft 254 kts 318°
2026-02-20 09:40 47.63345 8.13759 9323 ft 252 kts 318°
2026-02-20 09:40 47.64601 8.12101 9005 ft 250 kts 319°
2026-02-20 09:41 47.65949 8.10814 8715 ft 247 kts 339°
2026-02-20 09:41 47.67623 8.10536 8512 ft 242 kts
2026-02-20 09:41 47.69146 8.11489 8305 ft 239 kts 36°
2026-02-20 09:41 47.70141 8.13409 8101 ft 236 kts 65°
2026-02-20 09:42 47.70408 8.15784 7918 ft 233 kts 88°
2026-02-20 09:42 47.70325 8.18164 7707 ft 228 kts 92°
2026-02-20 09:42 47.70193 8.20504 7380 ft 227 kts 93°
2026-02-20 09:43 47.69112 8.24819 6809 ft 230 kts 130°
2026-02-20 09:43 47.67986 8.26482 6608 ft 229 kts 138°
2026-02-20 09:43 47.66813 8.28073 6396 ft 226 kts 138°
2026-02-20 09:43 47.65676 8.29631 6191 ft 219 kts 137°
2026-02-20 09:44 47.64581 8.31142 5978 ft 211 kts 137°
2026-02-20 09:44 47.63517 8.32598 5741 ft 207 kts 139°
2026-02-20 09:44 47.62460 8.34035 5459 ft 206 kts 139°
2026-02-20 09:44 47.61423 8.35464 5169 ft 206 kts 139°
2026-02-20 09:45 47.60361 8.36925 4861 ft 206 kts 139°
2026-02-20 09:45 47.59338 8.38330 4583 ft 205 kts 139°
2026-02-20 09:45 47.58298 8.39760 4291 ft 203 kts 139°
2026-02-20 09:45 47.57272 8.41172 4015 ft 200 kts 139°
2026-02-20 09:46 47.56264 8.42558 3742 ft 195 kts 139°
2026-02-20 09:46 47.55273 8.43922 3483 ft 190 kts 138°
2026-02-20 09:46 47.54349 8.45192 3217 ft 178 kts 139°
2026-02-20 09:46 47.53472 8.46390 2974 ft 163 kts 139°
2026-02-20 09:47 47.52670 8.47491 2764 ft 152 kts 139°
2026-02-20 09:47 47.51910 8.48533 2550 ft 147 kts 139°
2026-02-20 09:47 47.51163 8.49554 2341 ft 146 kts 139°
2026-02-20 09:47 47.50421 8.50569 2115 ft 146 kts 137°
2026-02-20 09:48 47.49674 8.51578 1869 ft 146 kts 138°
2026-02-20 09:48 47.48960 8.52559 1644 ft 146 kts 136°
2026-02-20 09:48 47.48226 8.53579 1441 ft 144 kts 136°
2026-02-20 09:48 47.47558 8.54499 1410 ft 119 kts 138°
2026-02-20 09:49 47.47060 8.55180 1406 ft 72 kts 137°
2026-02-20 09:49 47.46820 8.55506 1409 ft 31 kts 138°
2026-02-20 09:49 47.46645 8.55655 1407 ft 26 kts 160°
2026-02-20 09:49 47.46495 8.55713 1411 ft 20 kts 167°
2026-02-20 09:50 47.46382 8.55773 1412 ft 16 kts 148°
2026-02-20 09:50 47.46301 8.55860 1409 ft 12 kts 133°
2026-02-20 09:50 47.46248 8.55942 1409 ft 11 kts 134°
2026-02-20 09:50 47.46195 8.55993 1411 ft 8 kts 162°
2026-02-20 09:51 47.46123 8.55993 1411 ft 13 kts 184°
2026-02-20 09:51 47.46021 8.55978 1408 ft 16 kts 186°
2026-02-20 09:51 47.45944 8.55918 1410 ft 12 kts 246°
2026-02-20 09:51 47.45945 8.55787 1405 ft 14 kts 274°
2026-02-20 09:52 47.45953 8.55662 1409 ft 6 kts 287°
2026-02-20 09:52 47.45992 8.55634 1408 ft 6 kts 355°
2026-02-20 09:52 47.46024 8.55641 1410 ft 3 kts
2026-02-20 09:52 47.46030 8.55642 1411 ft 1 kts
2026-02-20 09:53 47.46033 8.55642 1411 ft 0 kts